Time,TemperatureF,DewpointF,PressureIn,WindDirection,WindDirectionDegrees,WindSpeedMPH,WindSpeedGustMPH,Humidity,HourlyPrecipIn,Conditions,Clouds,dailyrainin,SoftwareType,DateUTC
2013-05-24 00:00:00,62.1,60.7,29.68,South,190,1.0,8.0,95,0.00,,,0.02,Wunderground v.1.15,2013-05-24 04:00:00,
2013-05-24 00:01:00,62.1,60.7,29.68,SW,227,3.0,3.0,95,0.00,,,0.02,Wunderground v.1.15,2013-05-24 04:01:00,
2013-05-24 00:02:00,62.1,60.7,29.68,SSW,203,4.0,4.0,95,0.00,,,0.02,Wunderground v.1.15,2013-05-24 04:02:00,
2013-05-24 00:03:00,62.1,60.7,29.68,SSW,202,1.0,4.0,95,0.00,,,0.02,Wunderground v.1.15,2013-05-24 04:03:00,
2013-05-24 00:05:00,62.1,60.7,29.68,SW,228,2.0,4.0,95,0.00,,,0.00,Wunderground v.1.15,2013-05-24 04:05:00,
2013-05-24 00:07:00,62.1,60.7,29.68,WSW,256,8.0,8.0,95,0.00,,,0.00,Wunderground v.1.15,2013-05-24 04:07:00,
2013-05-24 00:08:00,62.1,60.7,29.68,SSW,205,0.0,8.0,95,0.00,,,0.00,Wunderground v.1.15,2013-05-24 04:08:00,
2013-05-24 00:10:00,62.2,60.8,29.68,South,169,7.0,7.0,95,0.00,,,0.00,Wunderground v.1.15,2013-05-24 04:10:00,
2013-05-24 00:11:00,62.2,60.8,29.68,SSW,206,4.0,7.0,95,0.00,,,0.00,Wunderground v.1.15,2013-05-24 04:11:00,
2013-05-24 00:12:00,62.2,60.8,29.68,WNW,284,0.0,7.0,95,0.00,,,0.00,Wunderground v.1.15,2013-05-24 04:12:00,
2013-05-24 00:16:00,62.2,60.8,29.68,SSW,213,0.0,7.0,95,0.00,,,0.00,Wunderground v.1.15,2013-05-24 04:16:00,
2013-05-24 00:17:00,62.2,60.8,29.68,SSW,212,0.0,7.0,95,0.00,,,0.00,Wunderground v.1.15,2013-05-24 04:17:00,
2013-05-24 00:19:00,62.1,60.7,29.67,SW,215,0.0,7.0,95,0.00,,,0.00,Wunderground v.1.15,2013-05-24 04:19:00,
2013-05-24 00:20:00,62.1,60.7,29.67,SW,215,0.0,1.0,95,0.00,,,0.00,Wunderground v.1.15,2013-05-24 04:20:00,
2013-05-24 00:23:00,62.1,60.7,29.67,SW,236,0.0,1.0,95,0.00,,,0.00,Wunderground v.1.15,2013-05-24 04:23:00,
2013-05-24 00:27:00,62.1,60.7,29.67,SW,214,0.0,1.0,95,0.00,,,0.00,Wunderground v.1.15,2013-05-24 04:27:00,
2013-05-24 00:28:00,62.1,60.7,29.67,SW,214,0.0,1.0,95,0.00,,,0.00,Wunderground v.1.15,2013-05-24 04:28:00,
2013-05-24 00:29:00,62.1,60.7,29.67,SW,214,0.0,1.0,95,0.00,,,0.00,Wunderground v.1.15,2013-05-24 04:29:00,
2013-05-24 00:31:00,62.0,60.8,29.67,WSW,246,1.0,1.0,96,0.00,,,0.00,Wunderground v.1.15,2013-05-24 04:31:00,
2013-05-24 00:33:00,62.0,60.8,29.67,SSE,164,0.0,1.0,96,0.00,,,0.00,Wunderground v.1.15,2013-05-24 04:33:00,
2013-05-24 00:36:00,62.0,60.8,29.67,East,90,1.0,1.0,96,0.00,,,0.00,Wunderground v.1.15,2013-05-24 04:36:00,
2013-05-24 00:37:00,62.0,60.8,29.67,South,187,5.0,5.0,96,0.00,,,0.00,Wunderground v.1.15,2013-05-24 04:37:00,
2013-05-24 00:39:00,62.0,60.8,29.67,South,172,5.0,5.0,96,0.00,,,0.00,Wunderground v.1.15,2013-05-24 04:39:00,
2013-05-24 00:42:00,62.0,60.8,29.67,South,178,1.0,1.0,96,0.00,,,0.00,Wunderground v.1.15,2013-05-24 04:42:00,
2013-05-24 00:43:00,62.0,60.8,29.67,SSE,165,0.0,2.0,96,0.00,,,0.00,Wunderground v.1.15,2013-05-24 04:43:00,
2013-05-24 00:44:00,62.0,60.8,29.67,SSW,202,3.0,3.0,96,0.00,,,0.00,Wunderground v.1.15,2013-05-24 04:44:00,
2013-05-24 00:45:00,62.1,60.9,29.67,SSW,202,0.0,3.0,96,0.00,,,0.00,Wunderground v.1.15,2013-05-24 04:45:00,
2013-05-24 00:47:00,62.1,60.9,29.67,SE,141,0.0,3.0,96,0.00,,,0.00,Wunderground v.1.15,2013-05-24 04:47:00,
2013-05-24 00:49:00,62.1,60.9,29.66,SE,141,0.0,3.0,96,0.00,,,0.00,Wunderground v.1.15,2013-05-24 04:49:00,
2013-05-24 00:50:00,62.1,60.9,29.67,SE,141,0.0,1.0,96,0.00,,,0.00,Wunderground v.1.15,2013-05-24 04:50:00,
2013-05-24 00:51:00,62.1,60.9,29.66,SE,141,0.0,1.0,96,0.00,,,0.00,Wunderground v.1.15,2013-05-24 04:51:00,
2013-05-24 00:56:00,62.1,60.9,29.66,South,174,0.0,1.0,96,0.00,,,0.01,Wunderground v.1.15,2013-05-24 04:56:00,
2013-05-24 00:57:00,62.1,60.9,29.66,South,174,0.0,1.0,96,0.00,,,0.01,Wunderground v.1.15,2013-05-24 04:57:00,
2013-05-24 00:58:00,62.1,60.9,29.66,South,174,0.0,1.0,96,0.00,,,0.01,Wunderground v.1.15,2013-05-24 04:58:00,
2013-05-24 00:59:00,62.0,60.8,29.66,South,174,0.0,1.0,96,0.00,,,0.01,Wunderground v.1.15,2013-05-24 04:59:00,
2013-05-24 01:04:00,62.0,60.8,29.66,SE,130,0.0,0.0,96,0.09,,,0.02,Wunderground v.1.15,2013-05-24 05:04:00,
2013-05-24 01:06:00,62.0,60.8,29.66,SE,130,0.0,0.0,96,0.16,,,0.03,Wunderground v.1.15,2013-05-24 05:06:00,
2013-05-24 01:07:00,62.0,60.8,29.66,SE,130,0.0,0.0,96,0.16,,,0.03,Wunderground v.1.15,2013-05-24 05:07:00,
2013-05-24 01:08:00,61.9,60.7,29.66,SE,138,1.0,1.0,96,0.16,,,0.03,Wunderground v.1.15,2013-05-24 05:08:00,
2013-05-24 01:10:00,61.9,60.7,29.66,SE,140,0.0,1.0,96,0.17,,,0.04,Wunderground v.1.15,2013-05-24 05:10:00,
2013-05-24 01:11:00,61.9,60.7,29.67,East,98,6.0,6.0,96,0.17,,,0.04,Wunderground v.1.15,2013-05-24 05:11:00,
2013-05-24 01:15:00,61.8,60.9,29.66,SE,125,0.0,6.0,97,0.24,,,0.06,Wunderground v.1.15,2013-05-24 05:15:00,
2013-05-24 01:17:00,61.8,60.9,29.65,ESE,123,0.0,6.0,97,0.26,,,0.07,Wunderground v.1.15,2013-05-24 05:17:00,
2013-05-24 01:18:00,61.8,60.9,29.65,WSW,243,2.0,6.0,97,0.26,,,0.07,Wunderground v.1.15,2013-05-24 05:18:00,
2013-05-24 01:20:00,61.7,60.5,29.66,WSW,251,0.0,0.0,96,0.26,,,0.08,Wunderground v.1.15,2013-05-24 05:20:00,
2013-05-24 01:22:00,61.6,60.4,29.66,SE,130,0.0,0.0,96,0.30,,,0.09,Wunderground v.1.15,2013-05-24 05:22:00,
2013-05-24 01:24:00,61.6,60.4,29.66,ESE,112,0.0,1.0,96,0.32,,,0.10,Wunderground v.1.15,2013-05-24 05:24:00,
2013-05-24 01:27:00,61.6,60.7,29.65,SSE,157,0.0,1.0,97,0.34,,,0.12,Wunderground v.1.15,2013-05-24 05:27:00,
2013-05-24 01:28:00,61.6,60.7,29.65,SSE,157,0.0,1.0,97,0.30,,,0.12,Wunderground v.1.15,2013-05-24 05:28:00,
2013-05-24 01:31:00,61.6,60.7,29.65,SSW,206,0.0,0.0,97,0.32,,,0.14,Wunderground v.1.15,2013-05-24 05:31:00,
2013-05-24 01:32:00,61.6,60.7,29.65,SSW,206,0.0,0.0,97,0.30,,,0.14,Wunderground v.1.15,2013-05-24 05:32:00,
2013-05-24 01:33:00,61.6,60.7,29.65,SSW,206,0.0,0.0,97,0.30,,,0.15,Wunderground v.1.15,2013-05-24 05:33:00,
2013-05-24 01:36:00,61.5,60.6,29.65,SSW,206,0.0,0.0,97,0.27,,,0.16,Wunderground v.1.15,2013-05-24 05:36:00,
2013-05-24 01:37:00,61.5,60.6,29.65,SSW,206,0.0,0.0,97,0.26,,,0.17,Wunderground v.1.15,2013-05-24 05:37:00,
2013-05-24 01:39:00,61.5,60.6,29.65,SSW,206,0.0,0.0,97,0.27,,,0.18,Wunderground v.1.15,2013-05-24 05:39:00,
2013-05-24 01:40:00,61.5,60.6,29.65,SSW,206,0.0,0.0,97,0.27,,,0.18,Wunderground v.1.15,2013-05-24 05:40:00,
2013-05-24 01:41:00,61.5,60.6,29.65,SSW,206,0.0,0.0,97,0.27,,,0.18,Wunderground v.1.15,2013-05-24 05:41:00,
2013-05-24 01:44:00,61.5,60.6,29.65,SSE,165,1.0,1.0,97,0.26,,,0.20,Wunderground v.1.15,2013-05-24 05:44:00,
2013-05-24 01:46:00,61.5,60.6,29.65,WSW,252,3.0,3.0,97,0.25,,,0.21,Wunderground v.1.15,2013-05-24 05:46:00,
2013-05-24 01:47:00,61.5,60.6,29.65,WSW,257,0.0,3.0,97,0.25,,,0.21,Wunderground v.1.15,2013-05-24 05:47:00,
2013-05-24 01:48:00,61.5,60.6,29.64,WSW,257,0.0,3.0,97,0.25,,,0.21,Wunderground v.1.15,2013-05-24 05:48:00,
2013-05-24 01:50:00,61.5,60.6,29.64,WSW,257,0.0,1.0,97,0.28,,,0.22,Wunderground v.1.15,2013-05-24 05:50:00,
2013-05-24 01:52:00,61.5,60.6,29.64,WSW,257,0.0,1.0,97,0.25,,,0.23,Wunderground v.1.15,2013-05-24 05:52:00,
2013-05-24 01:53:00,61.5,60.6,29.64,WSW,257,0.0,1.0,97,0.30,,,0.24,Wunderground v.1.15,2013-05-24 05:53:00,
2013-05-24 01:54:00,61.5,60.6,29.64,WSW,257,0.0,1.0,97,0.30,,,0.24,Wunderground v.1.15,2013-05-24 05:54:00,
2013-05-24 01:56:00,61.4,60.5,29.64,WSW,257,0.0,1.0,97,0.26,,,0.25,Wunderground v.1.15,2013-05-24 05:56:00,
2013-05-24 01:57:00,61.5,60.6,29.64,South,188,2.0,2.0,97,0.28,,,0.25,Wunderground v.1.15,2013-05-24 05:57:00,
2013-05-24 02:00:00,61.4,60.8,29.64,SSE,167,2.0,2.0,98,0.24,,,0.27,Wunderground v.1.15,2013-05-24 06:00:00,
2013-05-24 02:02:00,61.4,60.8,29.64,South,173,0.0,5.0,98,0.28,,,0.28,Wunderground v.1.15,2013-05-24 06:02:00,
2013-05-24 02:03:00,61.4,60.8,29.64,South,173,0.0,5.0,98,0.28,,,0.28,Wunderground v.1.15,2013-05-24 06:03:00,
2013-05-24 02:05:00,61.4,60.8,29.64,ESE,106,0.0,5.0,98,0.23,,,0.29,Wunderground v.1.15,2013-05-24 06:05:00,
2013-05-24 02:06:00,61.4,60.8,29.64,ESE,106,0.0,5.0,98,0.23,,,0.29,Wunderground v.1.15,2013-05-24 06:06:00,
2013-05-24 02:07:00,61.4,60.8,29.64,ESE,106,0.0,5.0,98,0.27,,,0.30,Wunderground v.1.15,2013-05-24 06:07:00,
2013-05-24 02:08:00,61.4,60.8,29.64,South,188,4.0,5.0,98,0.27,,,0.30,Wunderground v.1.15,2013-05-24 06:08:00,
2013-05-24 02:10:00,61.4,60.8,29.64,South,181,0.0,1.0,98,0.23,,,0.31,Wunderground v.1.15,2013-05-24 06:10:00,
2013-05-24 02:11:00,61.4,60.8,29.64,SSE,150,0.0,1.0,98,0.23,,,0.31,Wunderground v.1.15,2013-05-24 06:11:00,
2013-05-24 02:12:00,61.4,60.8,29.64,SE,144,1.0,1.0,98,0.29,,,0.32,Wunderground v.1.15,2013-05-24 06:12:00,
2013-05-24 02:13:00,61.4,60.8,29.64,South,178,5.0,5.0,98,0.29,,,0.32,Wunderground v.1.15,2013-05-24 06:13:00,
2013-05-24 02:16:00,61.3,60.4,29.64,ENE,74,0.0,6.0,97,0.24,,,0.33,Wunderground v.1.15,2013-05-24 06:16:00,
2013-05-24 02:17:00,61.3,60.4,29.64,SE,132,0.0,6.0,97,0.26,,,0.34,Wunderground v.1.15,2013-05-24 06:17:00,
2013-05-24 02:18:00,61.3,60.4,29.64,SE,132,0.0,6.0,97,0.26,,,0.34,Wunderground v.1.15,2013-05-24 06:18:00,
2013-05-24 02:21:00,61.3,60.4,29.64,SSW,198,0.0,4.0,97,0.21,,,0.35,Wunderground v.1.15,2013-05-24 06:21:00,
2013-05-24 02:22:00,61.3,60.4,29.64,ESE,123,6.0,6.0,97,0.23,,,0.36,Wunderground v.1.15,2013-05-24 06:22:00,
2013-05-24 02:23:00,61.3,60.4,29.64,ESE,122,0.0,6.0,97,0.23,,,0.36,Wunderground v.1.15,2013-05-24 06:23:00,
2013-05-24 02:27:00,61.3,60.4,29.63,South,175,0.0,6.0,97,0.20,,,0.37,Wunderground v.1.15,2013-05-24 06:27:00,
2013-05-24 02:28:00,61.3,60.4,29.63,South,175,1.0,6.0,97,0.25,,,0.38,Wunderground v.1.15,2013-05-24 06:28:00,
2013-05-24 02:29:00,61.3,60.4,29.63,South,175,0.0,6.0,97,0.25,,,0.38,Wunderground v.1.15,2013-05-24 06:29:00,
2013-05-24 02:32:00,61.2,60.3,29.63,SW,234,0.0,6.0,97,0.20,,,0.39,Wunderground v.1.15,2013-05-24 06:32:00,
2013-05-24 02:33:00,61.2,60.3,29.63,South,188,2.0,6.0,97,0.23,,,0.40,Wunderground v.1.15,2013-05-24 06:33:00,
2013-05-24 02:34:00,61.2,60.3,29.63,WSW,243,0.0,6.0,97,0.23,,,0.40,Wunderground v.1.15,2013-05-24 06:34:00,
2013-05-24 02:37:00,61.2,60.3,29.63,South,178,0.0,6.0,97,0.19,,,0.41,Wunderground v.1.15,2013-05-24 06:37:00,
2013-05-24 02:38:00,61.2,60.3,29.63,South,178,0.0,6.0,97,0.19,,,0.41,Wunderground v.1.15,2013-05-24 06:38:00,
2013-05-24 02:39:00,61.1,60.2,29.63,SW,222,0.0,6.0,97,0.21,,,0.42,Wunderground v.1.15,2013-05-24 06:39:00,
2013-05-24 02:40:00,61.1,60.2,29.63,SW,222,0.0,6.0,97,0.21,,,0.42,Wunderground v.1.15,2013-05-24 06:40:00,
2013-05-24 02:43:00,61.1,60.2,29.63,South,173,0.0,4.0,97,0.18,,,0.43,Wunderground v.1.15,2013-05-24 06:43:00,
2013-05-24 02:45:00,61.1,60.2,29.63,SSE,166,0.0,4.0,97,0.18,,,0.43,Wunderground v.1.15,2013-05-24 06:45:00,
2013-05-24 02:48:00,61.0,60.4,29.63,SSW,202,0.0,4.0,98,0.20,,,0.44,Wunderground v.1.15,2013-05-24 06:48:00,
2013-05-24 02:50:00,61.0,60.4,29.62,South,190,0.0,4.0,98,0.17,,,0.45,Wunderground v.1.15,2013-05-24 06:50:00,
2013-05-24 02:54:00,60.9,60.3,29.62,SSW,207,0.0,3.0,98,0.19,,,0.46,Wunderground v.1.15,2013-05-24 06:54:00,
2013-05-24 02:55:00,60.9,60.3,29.62,SSW,207,3.0,4.0,98,0.17,,,0.46,Wunderground v.1.15,2013-05-24 06:55:00,
2013-05-24 02:59:00,60.9,60.3,29.62,SSW,209,0.0,6.0,98,0.18,,,0.48,Wunderground v.1.15,2013-05-24 06:59:00,
2013-05-24 03:01:00,60.9,60.3,29.62,SW,222,0.0,1.0,98,0.18,,,0.48,Wunderground v.1.15,2013-05-24 07:01:00,
2013-05-24 03:04:00,60.8,60.2,29.62,SW,216,0.0,1.0,98,0.15,,,0.49,Wunderground v.1.15,2013-05-24 07:04:00,
2013-05-24 03:06:00,60.8,60.2,29.62,SW,216,0.0,1.0,98,0.19,,,0.50,Wunderground v.1.15,2013-05-24 07:06:00,
2013-05-24 03:08:00,60.8,60.2,29.62,South,175,0.0,4.0,98,0.19,,,0.50,Wunderground v.1.15,2013-05-24 07:08:00,
2013-05-24 03:09:00,60.8,60.2,29.62,South,175,0.0,4.0,98,0.19,,,0.50,Wunderground v.1.15,2013-05-24 07:09:00,
2013-05-24 03:10:00,60.8,60.2,29.62,South,175,0.0,0.0,98,0.14,,,0.50,Wunderground v.1.15,2013-05-24 07:10:00,
2013-05-24 03:11:00,60.8,60.2,29.62,South,175,0.0,0.0,98,0.14,,,0.51,Wunderground v.1.15,2013-05-24 07:11:00,
2013-05-24 03:14:00,60.7,60.1,29.62,SSE,150,1.0,2.0,98,0.17,,,0.52,Wunderground v.1.15,2013-05-24 07:14:00,
2013-05-24 03:16:00,60.7,59.8,29.62,SSW,202,0.0,5.0,97,0.17,,,0.52,Wunderground v.1.15,2013-05-24 07:16:00,
2013-05-24 03:19:00,60.7,59.8,29.61,SSW,200,0.0,5.0,97,0.13,,,0.53,Wunderground v.1.15,2013-05-24 07:19:00,
2013-05-24 03:20:00,60.7,59.8,29.62,SSW,200,0.0,5.0,97,0.13,,,0.53,Wunderground v.1.15,2013-05-24 07:20:00,
2013-05-24 03:21:00,60.6,59.7,29.61,SSW,200,0.0,0.0,97,0.13,,,0.53,Wunderground v.1.15,2013-05-24 07:21:00,
2013-05-24 03:24:00,60.5,59.6,29.61,South,178,0.0,3.0,97,0.16,,,0.54,Wunderground v.1.15,2013-05-24 07:24:00,
2013-05-24 03:25:00,60.5,59.6,29.61,South,178,1.0,3.0,97,0.16,,,0.54,Wunderground v.1.15,2013-05-24 07:25:00,
2013-05-24 03:26:00,60.5,59.6,29.61,South,176,1.0,5.0,97,0.14,,,0.54,Wunderground v.1.15,2013-05-24 07:26:00,
2013-05-24 03:29:00,60.4,59.5,29.61,South,175,0.0,5.0,97,0.11,,,0.55,Wunderground v.1.15,2013-05-24 07:29:00,
2013-05-24 03:30:00,60.4,59.5,29.61,South,175,0.0,0.0,97,0.11,,,0.55,Wunderground v.1.15,2013-05-24 07:30:00,
2013-05-24 03:31:00,60.4,59.5,29.61,SSW,204,0.0,3.0,97,0.11,,,0.55,Wunderground v.1.15,2013-05-24 07:31:00,
2013-05-24 03:34:00,60.3,59.7,29.61,South,181,0.0,5.0,98,0.14,,,0.56,Wunderground v.1.15,2013-05-24 07:34:00,
2013-05-24 03:35:00,60.4,59.8,29.61,South,181,0.0,5.0,98,0.14,,,0.56,Wunderground v.1.15,2013-05-24 07:35:00,
2013-05-24 03:36:00,60.3,59.7,29.61,SSW,211,0.0,5.0,98,0.13,,,0.56,Wunderground v.1.15,2013-05-24 07:36:00,
2013-05-24 03:37:00,60.3,59.7,29.61,SSW,211,0.0,5.0,98,0.12,,,0.56,Wunderground v.1.15,2013-05-24 07:37:00,
2013-05-24 03:39:00,60.3,59.4,29.61,SSW,210,0.0,5.0,97,0.10,,,0.57,Wunderground v.1.15,2013-05-24 07:39:00,
2013-05-24 03:41:00,60.3,59.4,29.61,SSW,210,0.0,0.0,97,0.10,,,0.57,Wunderground v.1.15,2013-05-24 07:41:00,
2013-05-24 03:42:00,60.3,59.7,29.61,SSW,210,0.0,1.0,98,0.10,,,0.57,Wunderground v.1.15,2013-05-24 07:42:00,
2013-05-24 03:45:00,60.2,59.6,29.61,SW,236,0.0,3.0,98,0.08,,,0.57,Wunderground v.1.15,2013-05-24 07:45:00,
2013-05-24 03:46:00,60.2,59.6,29.61,SW,236,0.0,3.0,98,0.07,,,0.57,Wunderground v.1.15,2013-05-24 07:46:00,
2013-05-24 03:47:00,60.2,59.6,29.61,SW,236,0.0,3.0,98,0.06,,,0.57,Wunderground v.1.15,2013-05-24 07:47:00,
2013-05-24 03:48:00,60.2,59.6,29.61,SW,236,0.0,3.0,98,0.06,,,0.57,Wunderground v.1.15,2013-05-24 07:48:00,
2013-05-24 03:51:00,60.1,59.5,29.61,SW,236,0.0,0.0,98,0.05,,,0.57,Wunderground v.1.15,2013-05-24 07:51:00,
2013-05-24 03:53:00,60.1,59.2,29.61,SW,236,0.0,0.0,97,0.04,,,0.57,Wunderground v.1.15,2013-05-24 07:53:00,
2013-05-24 03:56:00,60.1,59.5,29.61,SW,236,0.0,0.0,98,0.00,,,0.57,Wunderground v.1.15,2013-05-24 07:56:00,
2013-05-24 03:57:00,60.0,59.4,29.61,SW,236,0.0,0.0,98,0.00,,,0.57,Wunderground v.1.15,2013-05-24 07:57:00,
2013-05-24 03:58:00,60.1,59.5,29.61,SW,236,0.0,0.0,98,0.00,,,0.57,Wunderground v.1.15,2013-05-24 07:58:00,
2013-05-24 04:01:00,60.0,59.4,29.61,SW,236,0.0,0.0,98,0.00,,,0.57,Wunderground v.1.15,2013-05-24 08:01:00,
2013-05-24 04:02:00,60.0,59.4,29.61,SW,236,0.0,0.0,98,0.00,,,0.57,Wunderground v.1.15,2013-05-24 08:02:00,
2013-05-24 04:03:00,60.0,59.4,29.61,SW,236,0.0,0.0,98,0.00,,,0.57,Wunderground v.1.15,2013-05-24 08:03:00,
2013-05-24 04:04:00,60.0,59.4,29.61,SW,236,0.0,0.0,98,0.00,,,0.57,Wunderground v.1.15,2013-05-24 08:04:00,
2013-05-24 04:06:00,60.0,59.4,29.61,SW,236,0.0,0.0,98,0.00,,,0.58,Wunderground v.1.15,2013-05-24 08:06:00,
2013-05-24 04:07:00,60.0,59.4,29.61,SW,236,0.0,0.0,98,0.00,,,0.58,Wunderground v.1.15,2013-05-24 08:07:00,
2013-05-24 04:08:00,60.0,59.4,29.61,SW,236,0.0,1.0,98,0.00,,,0.58,Wunderground v.1.15,2013-05-24 08:08:00,
2013-05-24 04:09:00,60.0,59.4,29.60,SW,236,0.0,1.0,98,0.00,,,0.58,Wunderground v.1.15,2013-05-24 08:09:00,
2013-05-24 04:12:00,60.0,59.4,29.60,SW,236,0.0,0.0,98,0.00,,,0.58,Wunderground v.1.15,2013-05-24 08:12:00,
2013-05-24 04:13:00,59.9,59.3,29.60,SW,236,0.0,0.0,98,0.00,,,0.58,Wunderground v.1.15,2013-05-24 08:13:00,
2013-05-24 04:14:00,59.9,59.3,29.60,SW,236,0.0,0.0,98,0.00,,,0.58,Wunderground v.1.15,2013-05-24 08:14:00,
2013-05-24 04:17:00,59.9,59.3,29.60,SW,236,0.0,0.0,98,0.00,,,0.58,Wunderground v.1.15,2013-05-24 08:17:00,
2013-05-24 04:18:00,59.9,59.3,29.61,SW,236,0.0,1.0,98,0.00,,,0.58,Wunderground v.1.15,2013-05-24 08:18:00,
2013-05-24 04:19:00,59.9,59.3,29.61,SW,236,0.0,1.0,98,0.00,,,0.58,Wunderground v.1.15,2013-05-24 08:19:00,
2013-05-24 04:22:00,59.9,59.3,29.61,SW,236,0.0,0.0,98,0.00,,,0.58,Wunderground v.1.15,2013-05-24 08:22:00,
2013-05-24 04:23:00,59.9,59.3,29.61,SW,236,0.0,0.0,98,0.00,,,0.58,Wunderground v.1.15,2013-05-24 08:23:00,
2013-05-24 04:24:00,59.9,59.3,29.61,SW,236,0.0,0.0,98,0.00,,,0.58,Wunderground v.1.15,2013-05-24 08:24:00,
2013-05-24 04:27:00,59.8,59.2,29.61,SW,236,0.0,1.0,98,0.00,,,0.58,Wunderground v.1.15,2013-05-24 08:27:00,
2013-05-24 04:28:00,59.8,59.2,29.60,SW,236,0.0,1.0,98,0.00,,,0.58,Wunderground v.1.15,2013-05-24 08:28:00,
2013-05-24 04:29:00,59.8,59.2,29.60,SW,236,0.0,1.0,98,0.00,,,0.58,Wunderground v.1.15,2013-05-24 08:29:00,
2013-05-24 04:30:00,59.8,59.2,29.61,SW,236,0.0,1.0,98,0.00,,,0.58,Wunderground v.1.15,2013-05-24 08:30:00,
2013-05-24 04:33:00,59.8,59.2,29.61,SW,236,0.0,0.0,98,0.00,,,0.58,Wunderground v.1.15,2013-05-24 08:33:00,
2013-05-24 04:34:00,59.8,59.2,29.61,SW,236,0.0,0.0,98,0.00,,,0.58,Wunderground v.1.15,2013-05-24 08:34:00,
2013-05-24 04:35:00,59.8,59.2,29.61,SW,236,0.0,0.0,98,0.00,,,0.59,Wunderground v.1.15,2013-05-24 08:35:00,
2013-05-24 04:36:00,59.8,59.2,29.61,SW,236,0.0,0.0,98,0.00,,,0.59,Wunderground v.1.15,2013-05-24 08:36:00,
2013-05-24 04:38:00,59.8,59.2,29.61,SW,236,0.0,0.0,98,0.00,,,0.59,Wunderground v.1.15,2013-05-24 08:38:00,
2013-05-24 04:39:00,59.8,59.2,29.61,SW,236,0.0,0.0,98,0.00,,,0.59,Wunderground v.1.15,2013-05-24 08:39:00,
2013-05-24 04:40:00,59.8,59.2,29.60,SW,236,0.0,0.0,98,0.00,,,0.59,Wunderground v.1.15,2013-05-24 08:40:00,
2013-05-24 04:41:00,59.8,59.2,29.61,SW,236,0.0,0.0,98,0.00,,,0.59,Wunderground v.1.15,2013-05-24 08:41:00,
2013-05-24 04:43:00,59.8,59.2,29.61,SW,236,0.0,0.0,98,0.00,,,0.59,Wunderground v.1.15,2013-05-24 08:43:00,
2013-05-24 04:44:00,59.8,59.2,29.61,SW,236,0.0,0.0,98,0.07,,,0.60,Wunderground v.1.15,2013-05-24 08:44:00,
2013-05-24 04:45:00,59.8,59.2,29.61,SW,236,0.0,0.0,98,0.07,,,0.60,Wunderground v.1.15,2013-05-24 08:45:00,
2013-05-24 04:46:00,59.8,59.2,29.60,SW,236,0.0,0.0,98,0.07,,,0.60,Wunderground v.1.15,2013-05-24 08:46:00,
2013-05-24 04:48:00,59.8,59.2,29.60,SW,236,0.0,0.0,98,0.07,,,0.60,Wunderground v.1.15,2013-05-24 08:48:00,
2013-05-24 04:49:00,59.8,59.2,29.60,SW,236,0.0,0.0,98,0.07,,,0.60,Wunderground v.1.15,2013-05-24 08:49:00,
2013-05-24 04:50:00,59.8,59.2,29.60,SW,236,0.0,0.0,98,0.07,,,0.60,Wunderground v.1.15,2013-05-24 08:50:00,
2013-05-24 04:52:00,59.8,59.2,29.60,SW,236,0.0,0.0,98,0.07,,,0.60,Wunderground v.1.15,2013-05-24 08:52:00,
2013-05-24 04:53:00,59.8,59.2,29.60,SW,236,0.0,0.0,98,0.06,,,0.60,Wunderground v.1.15,2013-05-24 08:53:00,
2013-05-24 04:54:00,59.8,59.2,29.60,SW,236,0.0,0.0,98,0.05,,,0.60,Wunderground v.1.15,2013-05-24 08:54:00,
2013-05-24 04:56:00,59.8,59.2,29.60,SW,236,0.0,0.0,98,0.05,,,0.60,Wunderground v.1.15,2013-05-24 08:56:00,
2013-05-24 04:57:00,59.8,59.2,29.60,SW,236,0.0,0.0,98,0.04,,,0.60,Wunderground v.1.15,2013-05-24 08:57:00,
2013-05-24 04:58:00,59.8,59.2,29.59,SW,236,0.0,0.0,98,0.04,,,0.60,Wunderground v.1.15,2013-05-24 08:58:00,
2013-05-24 05:00:00,59.8,59.2,29.59,SW,236,0.0,0.0,98,0.04,,,0.61,Wunderground v.1.15,2013-05-24 09:00:00,
2013-05-24 05:01:00,59.8,59.2,29.59,SW,236,0.0,0.0,98,0.04,,,0.61,Wunderground v.1.15,2013-05-24 09:01:00,
2013-05-24 05:02:00,59.8,59.2,29.59,SW,236,0.0,0.0,98,0.04,,,0.61,Wunderground v.1.15,2013-05-24 09:02:00,
2013-05-24 05:04:00,59.8,59.2,29.59,SW,236,0.0,0.0,98,0.04,,,0.61,Wunderground v.1.15,2013-05-24 09:04:00,
2013-05-24 05:05:00,59.8,59.2,29.59,SW,236,0.0,0.0,98,0.04,,,0.61,Wunderground v.1.15,2013-05-24 09:05:00,
2013-05-24 05:07:00,59.8,59.2,29.59,SW,236,0.0,0.0,98,0.04,,,0.61,Wunderground v.1.15,2013-05-24 09:07:00,
2013-05-24 05:09:00,59.8,59.2,29.59,SW,236,0.0,0.0,98,0.04,,,0.61,Wunderground v.1.15,2013-05-24 09:09:00,
2013-05-24 05:10:00,59.8,59.2,29.59,SW,236,0.0,0.0,98,0.04,,,0.61,Wunderground v.1.15,2013-05-24 09:10:00,
2013-05-24 05:13:00,59.8,59.2,29.59,SW,236,0.0,0.0,98,0.04,,,0.61,Wunderground v.1.15,2013-05-24 09:13:00,
2013-05-24 05:14:00,59.8,59.2,29.58,SW,236,0.0,0.0,98,0.04,,,0.61,Wunderground v.1.15,2013-05-24 09:14:00,
2013-05-24 05:15:00,59.8,59.2,29.59,SW,236,0.0,0.0,98,0.04,,,0.61,Wunderground v.1.15,2013-05-24 09:15:00,
2013-05-24 05:18:00,59.7,59.1,29.59,SW,236,0.0,0.0,98,0.00,,,0.62,Wunderground v.1.15,2013-05-24 09:18:00,
2013-05-24 05:19:00,59.7,59.1,29.59,SW,236,0.0,0.0,98,0.00,,,0.62,Wunderground v.1.15,2013-05-24 09:19:00,
2013-05-24 05:20:00,59.7,59.1,29.58,SW,236,0.0,0.0,98,0.00,,,0.62,Wunderground v.1.15,2013-05-24 09:20:00,
2013-05-24 05:21:00,59.7,59.1,29.58,SW,236,0.0,0.0,98,0.00,,,0.62,Wunderground v.1.15,2013-05-24 09:21:00,
2013-05-24 05:23:00,59.7,59.1,29.58,SW,236,0.0,0.0,98,0.00,,,0.62,Wunderground v.1.15,2013-05-24 09:23:00,
2013-05-24 05:24:00,59.7,59.1,29.59,SW,236,0.0,0.0,98,0.00,,,0.62,Wunderground v.1.15,2013-05-24 09:24:00,
2013-05-24 05:26:00,59.6,59.0,29.58,SW,236,0.0,0.0,98,0.00,,,0.62,Wunderground v.1.15,2013-05-24 09:26:00,
2013-05-24 05:28:00,59.6,59.0,29.58,SW,236,0.0,0.0,98,0.00,,,0.62,Wunderground v.1.15,2013-05-24 09:28:00,
2013-05-24 05:29:00,59.6,59.0,29.58,SW,236,0.0,0.0,98,0.00,,,0.62,Wunderground v.1.15,2013-05-24 09:29:00,
2013-05-24 05:31:00,59.6,59.0,29.58,SW,236,0.0,0.0,98,0.00,,,0.62,Wunderground v.1.15,2013-05-24 09:31:00,
2013-05-24 05:32:00,59.6,59.0,29.58,SW,236,0.0,0.0,98,0.00,,,0.62,Wunderground v.1.15,2013-05-24 09:32:00,
2013-05-24 05:34:00,59.6,59.0,29.58,SW,236,0.0,0.0,98,0.00,,,0.62,Wunderground v.1.15,2013-05-24 09:34:00,
2013-05-24 05:37:00,59.6,59.0,29.59,SW,236,0.0,0.0,98,0.00,,,0.63,Wunderground v.1.15,2013-05-24 09:37:00,
2013-05-24 05:39:00,59.6,59.0,29.59,SW,236,0.0,0.0,98,0.00,,,0.63,Wunderground v.1.15,2013-05-24 09:39:00,
2013-05-24 05:40:00,59.6,59.0,29.59,SW,236,1.0,1.0,98,0.00,,,0.63,Wunderground v.1.15,2013-05-24 09:40:00,
2013-05-24 05:42:00,59.6,59.0,29.59,SW,236,0.0,0.0,98,0.00,,,0.63,Wunderground v.1.15,2013-05-24 09:42:00,
2013-05-24 05:43:00,59.6,59.0,29.59,SW,236,0.0,0.0,98,0.00,,,0.63,Wunderground v.1.15,2013-05-24 09:43:00,
2013-05-24 05:44:00,59.6,59.0,29.59,SW,236,0.0,0.0,98,0.00,,,0.63,Wunderground v.1.15,2013-05-24 09:44:00,
2013-05-24 05:45:00,59.6,59.0,29.59,SW,236,0.0,0.0,98,0.00,,,0.63,Wunderground v.1.15,2013-05-24 09:45:00,
2013-05-24 05:47:00,59.5,58.9,29.59,SW,236,0.0,0.0,98,0.00,,,0.63,Wunderground v.1.15,2013-05-24 09:47:00,
2013-05-24 05:49:00,59.5,58.9,29.59,SW,236,0.0,0.0,98,0.00,,,0.63,Wunderground v.1.15,2013-05-24 09:49:00,
2013-05-24 05:50:00,59.5,58.9,29.59,SW,236,0.0,0.0,98,0.00,,,0.63,Wunderground v.1.15,2013-05-24 09:50:00,
2013-05-24 05:52:00,59.5,58.9,29.59,SW,236,0.0,0.0,98,0.00,,,0.63,Wunderground v.1.15,2013-05-24 09:52:00,
2013-05-24 05:55:00,59.5,58.9,29.59,SW,236,0.0,0.0,98,0.00,,,0.63,Wunderground v.1.15,2013-05-24 09:55:00,
2013-05-24 05:57:00,59.5,58.9,29.59,SW,236,0.0,0.0,98,0.00,,,0.63,Wunderground v.1.15,2013-05-24 09:57:00,
2013-05-24 06:00:00,59.5,58.9,29.59,SW,236,0.0,0.0,98,0.00,,,0.63,Wunderground v.1.15,2013-05-24 10:00:00,
2013-05-24 06:01:00,59.5,58.9,29.59,SW,236,0.0,0.0,98,0.00,,,0.63,Wunderground v.1.15,2013-05-24 10:01:00,
2013-05-24 06:03:00,59.5,58.9,29.60,SW,236,0.0,0.0,98,0.00,,,0.63,Wunderground v.1.15,2013-05-24 10:03:00,
2013-05-24 06:05:00,59.5,58.9,29.60,SW,236,0.0,0.0,98,0.00,,,0.63,Wunderground v.1.15,2013-05-24 10:05:00,
2013-05-24 06:06:00,59.5,58.9,29.60,SW,236,0.0,0.0,98,0.00,,,0.63,Wunderground v.1.15,2013-05-24 10:06:00,
2013-05-24 06:09:00,59.5,58.9,29.60,SW,236,0.0,1.0,98,0.00,,,0.63,Wunderground v.1.15,2013-05-24 10:09:00,
2013-05-24 06:10:00,59.5,58.9,29.59,SW,236,0.0,0.0,98,0.00,,,0.63,Wunderground v.1.15,2013-05-24 10:10:00,
2013-05-24 06:11:00,59.6,59.0,29.60,SW,236,0.0,0.0,98,0.00,,,0.63,Wunderground v.1.15,2013-05-24 10:11:00,
2013-05-24 06:14:00,59.6,59.0,29.60,SW,236,0.0,0.0,98,0.00,,,0.63,Wunderground v.1.15,2013-05-24 10:14:00,
2013-05-24 06:16:00,59.6,59.0,29.60,SW,236,0.0,0.0,98,0.00,,,0.63,Wunderground v.1.15,2013-05-24 10:16:00,
2013-05-24 06:17:00,59.6,59.0,29.60,SW,236,0.0,0.0,98,0.00,,,0.63,Wunderground v.1.15,2013-05-24 10:17:00,
2013-05-24 06:19:00,59.6,59.3,29.60,SW,236,0.0,0.0,99,0.00,,,0.63,Wunderground v.1.15,2013-05-24 10:19:00,
2013-05-24 06:21:00,59.6,59.3,29.60,SW,236,0.0,0.0,99,0.00,,,0.63,Wunderground v.1.15,2013-05-24 10:21:00,
2013-05-24 06:22:00,59.6,59.3,29.60,SW,236,0.0,0.0,99,0.00,,,0.63,Wunderground v.1.15,2013-05-24 10:22:00,
2013-05-24 06:23:00,59.6,59.3,29.59,SW,236,0.0,1.0,99,0.00,,,0.63,Wunderground v.1.15,2013-05-24 10:23:00,
2013-05-24 06:24:00,59.6,59.3,29.59,West,273,1.0,6.0,99,0.00,,,0.63,Wunderground v.1.15,2013-05-24 10:24:00,
2013-05-24 06:26:00,59.6,59.3,29.59,West,273,1.0,6.0,99,0.00,,,0.63,Wunderground v.1.15,2013-05-24 10:26:00,
2013-05-24 06:27:00,59.6,59.0,29.59,West,273,0.0,6.0,98,0.00,,,0.63,Wunderground v.1.15,2013-05-24 10:27:00,
2013-05-24 06:28:00,59.6,59.0,29.59,West,273,0.0,6.0,98,0.00,,,0.63,Wunderground v.1.15,2013-05-24 10:28:00,
2013-05-24 06:30:00,59.6,59.3,29.59,West,273,0.0,6.0,99,0.00,,,0.63,Wunderground v.1.15,2013-05-24 10:30:00,
2013-05-24 06:31:00,59.6,59.3,29.59,West,273,0.0,0.0,99,0.00,,,0.63,Wunderground v.1.15,2013-05-24 10:31:00,
2013-05-24 06:32:00,59.6,59.3,29.60,West,273,0.0,0.0,99,0.00,,,0.63,Wunderground v.1.15,2013-05-24 10:32:00,
2013-05-24 06:33:00,59.6,59.3,29.60,West,273,0.0,0.0,99,0.00,,,0.63,Wunderground v.1.15,2013-05-24 10:33:00,
2013-05-24 06:35:00,59.6,59.3,29.60,West,273,0.0,0.0,99,0.00,,,0.63,Wunderground v.1.15,2013-05-24 10:35:00,
2013-05-24 06:36:00,59.6,59.3,29.60,West,273,0.0,0.0,99,0.00,,,0.63,Wunderground v.1.15,2013-05-24 10:36:00,
2013-05-24 06:37:00,59.6,59.3,29.60,West,273,0.0,1.0,99,0.00,,,0.63,Wunderground v.1.15,2013-05-24 10:37:00,
2013-05-24 06:38:00,59.6,59.3,29.60,West,273,0.0,1.0,99,0.00,,,0.63,Wunderground v.1.15,2013-05-24 10:38:00,
2013-05-24 06:40:00,59.6,59.3,29.60,West,273,1.0,2.0,99,0.00,,,0.63,Wunderground v.1.15,2013-05-24 10:40:00,
2013-05-24 06:41:00,59.6,59.3,29.60,West,273,0.0,2.0,99,0.00,,,0.63,Wunderground v.1.15,2013-05-24 10:41:00,
2013-05-24 06:43:00,59.6,59.3,29.60,West,273,1.0,3.0,99,0.00,,,0.63,Wunderground v.1.15,2013-05-24 10:43:00,
2013-05-24 06:46:00,59.6,59.3,29.60,SSW,211,0.0,6.0,99,0.00,,,0.63,Wunderground v.1.15,2013-05-24 10:46:00,
2013-05-24 06:48:00,59.6,59.3,29.60,SSW,211,0.0,6.0,99,0.00,,,0.63,Wunderground v.1.15,2013-05-24 10:48:00,
2013-05-24 06:51:00,59.6,59.3,29.60,SW,221,1.0,4.0,99,0.00,,,0.63,Wunderground v.1.15,2013-05-24 10:51:00,
2013-05-24 06:53:00,59.6,59.3,29.60,SW,221,0.0,4.0,99,0.00,,,0.63,Wunderground v.1.15,2013-05-24 10:53:00,
2013-05-24 06:54:00,59.6,59.3,29.60,South,174,2.0,4.0,99,0.00,,,0.63,Wunderground v.1.15,2013-05-24 10:54:00,
2013-05-24 06:56:00,59.6,59.3,29.60,SW,217,0.0,5.0,99,0.00,,,0.63,Wunderground v.1.15,2013-05-24 10:56:00,
2013-05-24 06:58:00,59.6,59.3,29.60,SSE,161,2.0,5.0,99,0.00,,,0.63,Wunderground v.1.15,2013-05-24 10:58:00,
2013-05-24 06:59:00,59.6,59.3,29.60,SSE,158,0.0,5.0,99,0.00,,,0.63,Wunderground v.1.15,2013-05-24 10:59:00,
2013-05-24 07:02:00,59.5,59.2,29.60,WNW,289,0.0,3.0,99,0.00,,,0.63,Wunderground v.1.15,2013-05-24 11:02:00,
2013-05-24 07:04:00,59.5,59.2,29.60,South,179,4.0,5.0,99,0.00,,,0.63,Wunderground v.1.15,2013-05-24 11:04:00,
2013-05-24 07:07:00,59.5,59.2,29.61,WSW,257,1.0,5.0,99,0.00,,,0.63,Wunderground v.1.15,2013-05-24 11:07:00,
2013-05-24 07:09:00,59.5,59.2,29.61,SW,222,0.0,6.0,99,0.00,,,0.63,Wunderground v.1.15,2013-05-24 11:09:00,
2013-05-24 07:13:00,59.5,59.2,29.61,SW,217,2.0,6.0,99,0.00,,,0.63,Wunderground v.1.15,2013-05-24 11:13:00,
2013-05-24 07:14:00,59.5,59.2,29.61,WSW,254,0.0,6.0,99,0.00,,,0.63,Wunderground v.1.15,2013-05-24 11:14:00,
2013-05-24 07:15:00,59.5,59.2,29.61,WSW,254,0.0,6.0,99,0.00,,,0.63,Wunderground v.1.15,2013-05-24 11:15:00,
2013-05-24 07:18:00,59.5,59.2,29.61,WSW,242,0.0,6.0,99,0.00,,,0.63,Wunderground v.1.15,2013-05-24 11:18:00,
2013-05-24 07:19:00,59.5,59.2,29.61,WSW,254,0.0,6.0,99,0.00,,,0.63,Wunderground v.1.15,2013-05-24 11:19:00,
2013-05-24 07:20:00,59.5,59.2,29.61,WSW,254,0.0,6.0,99,0.00,,,0.63,Wunderground v.1.15,2013-05-24 11:20:00,
2013-05-24 07:23:00,59.5,59.2,29.61,WSW,254,0.0,2.0,99,0.00,,,0.63,Wunderground v.1.15,2013-05-24 11:23:00,
2013-05-24 07:25:00,59.6,59.3,29.61,West,279,2.0,2.0,99,0.00,,,0.63,Wunderground v.1.15,2013-05-24 11:25:00,
2013-05-24 07:26:00,59.5,59.2,29.61,West,279,0.0,2.0,99,0.00,,,0.63,Wunderground v.1.15,2013-05-24 11:26:00,
2013-05-24 07:28:00,59.6,59.3,29.61,West,279,0.0,2.0,99,0.00,,,0.63,Wunderground v.1.15,2013-05-24 11:28:00,
2013-05-24 07:30:00,59.6,59.3,29.61,West,279,0.0,2.0,99,0.00,,,0.63,Wunderground v.1.15,2013-05-24 11:30:00,
2013-05-24 07:31:00,59.6,59.3,29.62,West,279,0.0,0.0,99,0.00,,,0.63,Wunderground v.1.15,2013-05-24 11:31:00,
2013-05-24 07:34:00,59.5,59.2,29.61,WNW,300,0.0,4.0,99,0.00,,,0.63,Wunderground v.1.15,2013-05-24 11:34:00,
2013-05-24 07:35:00,59.5,59.2,29.61,South,175,1.0,4.0,99,0.00,,,0.63,Wunderground v.1.15,2013-05-24 11:35:00,
2013-05-24 07:36:00,59.5,59.2,29.61,WSW,240,5.0,5.0,99,0.00,,,0.63,Wunderground v.1.15,2013-05-24 11:36:00,
2013-05-24 07:39:00,59.3,59.0,29.62,South,184,1.0,5.0,99,0.00,,,0.63,Wunderground v.1.15,2013-05-24 11:39:00,
2013-05-24 07:40:00,59.1,58.5,29.62,WSW,249,0.0,4.0,98,0.00,,,0.63,Wunderground v.1.15,2013-05-24 11:40:00,
2013-05-24 07:41:00,59.1,58.5,29.62,WSW,249,0.0,4.0,98,0.00,,,0.63,Wunderground v.1.15,2013-05-24 11:41:00,
2013-05-24 07:44:00,59.1,58.8,29.62,WSW,249,0.0,4.0,99,0.00,,,0.63,Wunderground v.1.15,2013-05-24 11:44:00,
2013-05-24 07:46:00,59.2,58.9,29.62,WSW,249,0.0,4.0,99,0.00,,,0.63,Wunderground v.1.15,2013-05-24 11:46:00,
2013-05-24 07:47:00,59.2,58.9,29.62,WSW,249,0.0,4.0,99,0.00,,,0.63,Wunderground v.1.15,2013-05-24 11:47:00,
2013-05-24 07:49:00,59.1,58.8,29.62,West,278,0.0,4.0,99,0.00,,,0.63,Wunderground v.1.15,2013-05-24 11:49:00,
2013-05-24 07:51:00,59.1,58.8,29.62,West,278,0.0,1.0,99,0.00,,,0.63,Wunderground v.1.15,2013-05-24 11:51:00,
2013-05-24 07:52:00,59.1,58.8,29.62,WSW,238,0.0,2.0,99,0.00,,,0.63,Wunderground v.1.15,2013-05-24 11:52:00,
2013-05-24 07:54:00,59.0,58.7,29.63,SSW,212,0.0,4.0,99,0.00,,,0.63,Wunderground v.1.15,2013-05-24 11:54:00,
2013-05-24 07:56:00,58.9,58.6,29.63,WSW,246,0.0,4.0,99,0.00,,,0.63,Wunderground v.1.15,2013-05-24 11:56:00,
2013-05-24 07:57:00,58.9,58.6,29.62,WSW,246,2.0,4.0,99,0.00,,,0.63,Wunderground v.1.15,2013-05-24 11:57:00,
2013-05-24 07:58:00,58.8,58.5,29.62,SW,221,0.0,4.0,99,0.00,,,0.63,Wunderground v.1.15,2013-05-24 11:58:00,
2013-05-24 07:59:00,58.8,58.5,29.63,SW,221,0.0,4.0,99,0.00,,,0.63,Wunderground v.1.15,2013-05-24 11:59:00,
2013-05-24 08:01:00,58.8,58.5,29.63,SW,222,3.0,3.0,99,0.00,,,0.63,Wunderground v.1.15,2013-05-24 12:01:00,
2013-05-24 08:02:00,58.8,58.5,29.63,SW,222,0.0,3.0,99,0.00,,,0.63,Wunderground v.1.15,2013-05-24 12:02:00,
2013-05-24 08:03:00,58.8,58.5,29.63,WNW,282,4.0,4.0,99,0.00,,,0.63,Wunderground v.1.15,2013-05-24 12:03:00,
2013-05-24 08:04:00,58.8,58.5,29.63,WSW,255,1.0,4.0,99,0.00,,,0.63,Wunderground v.1.15,2013-05-24 12:04:00,
2013-05-24 08:05:00,58.7,58.4,29.63,WSW,255,0.0,4.0,99,0.00,,,0.63,Wunderground v.1.15,2013-05-24 12:05:00,
2013-05-24 08:06:00,58.7,58.4,29.63,WSW,255,0.0,4.0,99,0.00,,,0.63,Wunderground v.1.15,2013-05-24 12:06:00,
2013-05-24 08:07:00,58.7,58.4,29.63,WSW,255,0.0,4.0,99,0.00,,,0.63,Wunderground v.1.15,2013-05-24 12:07:00,
2013-05-24 08:08:00,58.8,58.5,29.63,WSW,255,0.0,4.0,99,0.00,,,0.63,Wunderground v.1.15,2013-05-24 12:08:00,
2013-05-24 08:09:00,58.7,58.4,29.63,WSW,255,0.0,4.0,99,0.00,,,0.63,Wunderground v.1.15,2013-05-24 12:09:00,
2013-05-24 08:10:00,58.7,58.4,29.63,SW,225,0.0,4.0,99,0.00,,,0.63,Wunderground v.1.15,2013-05-24 12:10:00,
2013-05-24 08:11:00,58.6,58.3,29.63,SW,230,1.0,4.0,99,0.00,,,0.63,Wunderground v.1.15,2013-05-24 12:11:00,
2013-05-24 08:12:00,58.5,58.2,29.63,West,270,2.0,4.0,99,0.00,,,0.63,Wunderground v.1.15,2013-05-24 12:12:00,
2013-05-24 08:13:00,58.5,58.2,29.63,West,275,0.0,4.0,99,0.00,,,0.63,Wunderground v.1.15,2013-05-24 12:13:00,
2013-05-24 08:14:00,58.4,57.8,29.63,North,9,3.0,6.0,98,0.00,,,0.63,Wunderground v.1.15,2013-05-24 12:14:00,
2013-05-24 08:15:00,58.2,57.6,29.63,WNW,302,0.0,6.0,98,0.00,,,0.63,Wunderground v.1.15,2013-05-24 12:15:00,
2013-05-24 08:17:00,58.1,57.5,29.64,North,355,4.0,6.0,98,0.00,,,0.63,Wunderground v.1.15,2013-05-24 12:17:00,
2013-05-24 08:18:00,58.0,57.4,29.63,WNW,298,0.0,6.0,98,0.00,,,0.63,Wunderground v.1.15,2013-05-24 12:18:00,
2013-05-24 08:20:00,57.8,57.2,29.64,West,275,0.0,6.0,98,0.00,,,0.63,Wunderground v.1.15,2013-05-24 12:20:00,
2013-05-24 08:21:00,57.6,57.0,29.63,WSW,249,0.0,2.0,98,0.00,,,0.63,Wunderground v.1.15,2013-05-24 12:21:00,
2013-05-24 08:22:00,57.4,56.8,29.63,NNW,336,3.0,3.0,98,0.00,,,0.63,Wunderground v.1.15,2013-05-24 12:22:00,
2013-05-24 08:23:00,57.4,56.8,29.64,West,268,4.0,5.0,98,0.00,,,0.63,Wunderground v.1.15,2013-05-24 12:23:00,
2013-05-24 08:25:00,57.0,56.4,29.63,NW,308,0.0,5.0,98,0.00,,,0.63,Wunderground v.1.15,2013-05-24 12:25:00,
2013-05-24 08:26:00,56.8,56.2,29.64,NW,306,0.0,5.0,98,0.00,,,0.63,Wunderground v.1.15,2013-05-24 12:26:00,
2013-05-24 08:27:00,56.5,55.9,29.64,SW,227,3.0,5.0,98,0.00,,,0.63,Wunderground v.1.15,2013-05-24 12:27:00,
2013-05-24 08:28:00,56.4,55.8,29.64,NW,305,1.0,5.0,98,0.00,,,0.63,Wunderground v.1.15,2013-05-24 12:28:00,
2013-05-24 08:30:00,55.7,54.9,29.64,North,360,6.0,6.0,97,0.00,,,0.63,Wunderground v.1.15,2013-05-24 12:30:00,
2013-05-24 08:31:00,55.7,54.9,29.64,NW,312,0.0,6.0,97,0.00,,,0.63,Wunderground v.1.15,2013-05-24 12:31:00,
2013-05-24 08:32:00,55.4,54.6,29.64,North,355,3.0,6.0,97,0.00,,,0.63,Wunderground v.1.15,2013-05-24 12:32:00,
2013-05-24 08:33:00,55.3,54.5,29.64,NNW,342,1.0,6.0,97,0.00,,,0.63,Wunderground v.1.15,2013-05-24 12:33:00,
2013-05-24 08:36:00,55.0,54.2,29.64,NW,305,2.0,6.0,97,0.00,,,0.63,Wunderground v.1.15,2013-05-24 12:36:00,
2013-05-24 08:37:00,54.8,54.0,29.64,SE,138,0.0,6.0,97,0.00,,,0.63,Wunderground v.1.15,2013-05-24 12:37:00,
2013-05-24 08:38:00,54.7,54.1,29.64,NNW,343,5.0,6.0,98,0.00,,,0.63,Wunderground v.1.15,2013-05-24 12:38:00,
2013-05-24 08:39:00,54.5,53.9,29.64,NNW,332,0.0,7.0,98,0.00,,,0.63,Wunderground v.1.15,2013-05-24 12:39:00,
2013-05-24 08:41:00,54.2,53.4,29.64,NW,323,4.0,6.0,97,0.00,,,0.63,Wunderground v.1.15,2013-05-24 12:41:00,
2013-05-24 08:42:00,54.1,53.5,29.64,North,5,9.0,10.0,98,0.00,,,0.63,Wunderground v.1.15,2013-05-24 12:42:00,
2013-05-24 08:43:00,53.9,53.1,29.64,NNE,22,6.0,10.0,97,0.00,,,0.63,Wunderground v.1.15,2013-05-24 12:43:00,
2013-05-24 08:44:00,53.7,52.9,29.64,WNW,297,3.0,10.0,97,0.00,,,0.63,Wunderground v.1.15,2013-05-24 12:44:00,
2013-05-24 08:47:00,53.3,52.5,29.65,North,10,5.0,10.0,97,0.00,,,0.63,Wunderground v.1.15,2013-05-24 12:47:00,
2013-05-24 08:48:00,53.1,52.3,29.65,WNW,302,1.0,10.0,97,0.00,,,0.63,Wunderground v.1.15,2013-05-24 12:48:00,
2013-05-24 08:49:00,53.0,52.2,29.64,NW,307,0.0,10.0,97,0.00,,,0.63,Wunderground v.1.15,2013-05-24 12:49:00,
2013-05-24 08:52:00,52.6,51.8,29.64,ENE,63,0.0,6.0,97,0.00,,,0.63,Wunderground v.1.15,2013-05-24 12:52:00,
2013-05-24 08:53:00,52.5,51.7,29.64,ENE,63,0.0,6.0,97,0.00,,,0.63,Wunderground v.1.15,2013-05-24 12:53:00,
2013-05-24 08:54:00,52.5,51.7,29.65,WNW,297,2.0,6.0,97,0.00,,,0.63,Wunderground v.1.15,2013-05-24 12:54:00,
2013-05-24 08:58:00,52.1,51.6,29.65,NE,51,0.0,6.0,98,0.00,,,0.63,Wunderground v.1.15,2013-05-24 12:58:00,
2013-05-24 08:59:00,52.0,51.2,29.65,East,86,0.0,6.0,97,0.00,,,0.63,Wunderground v.1.15,2013-05-24 12:59:00,
2013-05-24 09:03:00,51.5,51.0,29.66,WSW,252,0.0,5.0,98,0.00,,,0.63,Wunderground v.1.15,2013-05-24 13:03:00,
2013-05-24 09:04:00,51.5,51.0,29.66,South,189,4.0,5.0,98,0.00,,,0.63,Wunderground v.1.15,2013-05-24 13:04:00,
2013-05-24 09:08:00,50.8,50.0,29.67,SW,235,0.0,9.0,97,0.00,,,0.63,Wunderground v.1.15,2013-05-24 13:08:00,
2013-05-24 09:09:00,50.7,49.9,29.67,SSW,209,0.0,9.0,97,0.00,,,0.63,Wunderground v.1.15,2013-05-24 13:09:00,
2013-05-24 09:10:00,50.6,49.8,29.67,SW,225,1.0,9.0,97,0.00,,,0.63,Wunderground v.1.15,2013-05-24 13:10:00,
2013-05-24 09:13:00,50.1,49.3,29.67,SW,219,1.0,10.0,97,0.00,,,0.63,Wunderground v.1.15,2013-05-24 13:13:00,
2013-05-24 09:14:00,49.9,49.1,29.67,ESE,117,0.0,10.0,97,0.00,,,0.63,Wunderground v.1.15,2013-05-24 13:14:00,
2013-05-24 09:15:00,49.8,49.0,29.67,NW,326,6.0,10.0,97,0.00,,,0.63,Wunderground v.1.15,2013-05-24 13:15:00,
2013-05-24 09:16:00,49.7,48.9,29.67,WSW,238,1.0,10.0,97,0.00,,,0.63,Wunderground v.1.15,2013-05-24 13:16:00,
2013-05-24 09:18:00,49.4,48.6,29.67,NNE,17,6.0,10.0,97,0.00,,,0.63,Wunderground v.1.15,2013-05-24 13:18:00,
2013-05-24 09:19:00,49.2,48.4,29.67,WSW,253,3.0,10.0,97,0.00,,,0.63,Wunderground v.1.15,2013-05-24 13:19:00,
2013-05-24 09:20:00,49.2,48.4,29.67,NNW,342,9.0,10.0,97,0.00,,,0.63,Wunderground v.1.15,2013-05-24 13:20:00,
2013-05-24 09:21:00,49.1,48.3,29.67,WSW,244,5.0,7.0,97,0.00,,,0.63,Wunderground v.1.15,2013-05-24 13:21:00,
2013-05-24 09:24:00,48.8,48.0,29.68,NE,49,2.0,13.0,97,0.00,,,0.63,Wunderground v.1.15,2013-05-24 13:24:00,
2013-05-24 09:25:00,48.7,47.9,29.68,West,265,0.0,13.0,97,0.00,,,0.63,Wunderground v.1.15,2013-05-24 13:25:00,
2013-05-24 09:26:00,48.6,48.1,29.68,NNW,328,5.0,13.0,98,0.00,,,0.63,Wunderground v.1.15,2013-05-24 13:26:00,
2013-05-24 09:29:00,48.4,47.6,29.68,South,184,3.0,13.0,97,0.00,,,0.63,Wunderground v.1.15,2013-05-24 13:29:00,
2013-05-24 09:30:00,48.3,47.5,29.68,NNW,345,5.0,8.0,97,0.00,,,0.63,Wunderground v.1.15,2013-05-24 13:30:00,
2013-05-24 09:31:00,48.2,47.4,29.68,NE,34,4.0,8.0,97,0.00,,,0.63,Wunderground v.1.15,2013-05-24 13:31:00,
2013-05-24 09:34:00,48.1,47.3,29.68,NW,322,5.0,8.0,97,0.00,,,0.63,Wunderground v.1.15,2013-05-24 13:34:00,
2013-05-24 09:35:00,47.9,47.1,29.68,NW,311,6.0,9.0,97,0.00,,,0.63,Wunderground v.1.15,2013-05-24 13:35:00,
2013-05-24 09:37:00,47.8,47.0,29.69,North,360,2.0,9.0,97,0.00,,,0.63,Wunderground v.1.15,2013-05-24 13:37:00,
2013-05-24 09:39:00,47.6,46.8,29.69,NE,48,5.0,10.0,97,0.00,,,0.63,Wunderground v.1.15,2013-05-24 13:39:00,
2013-05-24 09:41:00,47.4,46.6,29.68,West,273,0.0,5.0,97,0.00,,,0.63,Wunderground v.1.15,2013-05-24 13:41:00,
2013-05-24 09:42:00,47.4,46.6,29.69,NNW,328,10.0,10.0,97,0.00,,,0.63,Wunderground v.1.15,2013-05-24 13:42:00,
2013-05-24 09:44:00,47.3,46.5,29.69,WSW,248,6.0,10.0,97,0.00,,,0.63,Wunderground v.1.15,2013-05-24 13:44:00,
2013-05-24 09:46:00,47.2,46.4,29.69,NNW,342,5.0,10.0,97,0.00,,,0.63,Wunderground v.1.15,2013-05-24 13:46:00,
2013-05-24 09:47:00,47.2,46.4,29.68,West,273,2.0,10.0,97,0.00,,,0.63,Wunderground v.1.15,2013-05-24 13:47:00,
2013-05-24 09:48:00,47.2,46.4,29.68,NNE,24,4.0,10.0,97,0.00,,,0.63,Wunderground v.1.15,2013-05-24 13:48:00,
2013-05-24 09:49:00,47.1,46.3,29.68,SW,232,7.0,10.0,97,0.00,,,0.63,Wunderground v.1.15,2013-05-24 13:49:00,
2013-05-24 09:50:00,47.1,46.3,29.69,NNW,337,9.0,10.0,97,0.00,,,0.63,Wunderground v.1.15,2013-05-24 13:50:00,
2013-05-24 09:51:00,46.9,46.1,29.69,West,278,0.0,6.0,97,0.00,,,0.63,Wunderground v.1.15,2013-05-24 13:51:00,
2013-05-24 09:52:00,46.9,46.4,29.69,West,279,11.0,11.0,98,0.00,,,0.63,Wunderground v.1.15,2013-05-24 13:52:00,
2013-05-24 09:53:00,46.8,46.3,29.68,WSW,250,3.0,11.0,98,0.00,,,0.63,Wunderground v.1.15,2013-05-24 13:53:00,
2013-05-24 09:54:00,46.7,45.9,29.69,SSW,205,10.0,11.0,97,0.00,,,0.63,Wunderground v.1.15,2013-05-24 13:54:00,
2013-05-24 09:55:00,46.7,45.9,29.69,North,360,4.0,11.0,97,0.00,,,0.63,Wunderground v.1.15,2013-05-24 13:55:00,
2013-05-24 09:57:00,46.5,45.7,29.69,North,351,6.0,11.0,97,0.00,,,0.63,Wunderground v.1.15,2013-05-24 13:57:00,
2013-05-24 09:59:00,46.4,45.6,29.69,ESE,111,2.0,11.0,97,0.00,,,0.63,Wunderground v.1.15,2013-05-24 13:59:00,
2013-05-24 10:00:00,46.3,45.8,29.69,SW,220,1.0,7.0,98,0.00,,,0.63,Wunderground v.1.15,2013-05-24 14:00:00,
2013-05-24 10:02:00,46.2,45.4,29.69,WNW,289,1.0,10.0,97,0.00,,,0.63,Wunderground v.1.15,2013-05-24 14:02:00,
2013-05-24 10:03:00,46.2,45.4,29.69,NW,318,4.0,10.0,97,0.00,,,0.63,Wunderground v.1.15,2013-05-24 14:03:00,
2013-05-24 10:04:00,46.2,45.4,29.68,West,269,3.0,10.0,97,0.00,,,0.63,Wunderground v.1.15,2013-05-24 14:04:00,
2013-05-24 10:05:00,46.2,45.7,29.69,NNE,13,5.0,10.0,98,0.00,,,0.63,Wunderground v.1.15,2013-05-24 14:05:00,
2013-05-24 10:06:00,46.2,45.7,29.69,ESE,104,4.0,10.0,98,0.00,,,0.63,Wunderground v.1.15,2013-05-24 14:06:00,
2013-05-24 10:07:00,46.2,45.7,29.68,NNW,342,6.0,10.0,98,0.00,,,0.63,Wunderground v.1.15,2013-05-24 14:07:00,
2013-05-24 10:08:00,46.2,45.7,29.69,WSW,258,3.0,10.0,98,0.00,,,0.63,Wunderground v.1.15,2013-05-24 14:08:00,
2013-05-24 10:09:00,46.1,45.6,29.68,NNW,344,0.0,10.0,98,0.00,,,0.63,Wunderground v.1.15,2013-05-24 14:09:00,
2013-05-24 10:11:00,46.1,45.3,29.69,NE,41,3.0,13.0,97,0.00,,,0.63,Wunderground v.1.15,2013-05-24 14:11:00,
2013-05-24 10:12:00,46.1,45.3,29.69,North,5,13.0,17.0,97,0.00,,,0.63,Wunderground v.1.15,2013-05-24 14:12:00,
2013-05-24 10:14:00,46.0,45.2,29.69,SSW,192,0.0,17.0,97,0.00,,,0.64,Wunderground v.1.15,2013-05-24 14:14:00,
2013-05-24 10:16:00,46.0,45.2,29.69,South,173,1.0,17.0,97,0.00,,,0.64,Wunderground v.1.15,2013-05-24 14:16:00,
2013-05-24 10:17:00,46.0,45.5,29.69,NE,42,0.0,17.0,98,0.00,,,0.64,Wunderground v.1.15,2013-05-24 14:17:00,
2013-05-24 10:19:00,46.1,45.6,29.69,WNW,302,6.0,17.0,98,0.00,,,0.64,Wunderground v.1.15,2013-05-24 14:19:00,
2013-05-24 10:21:00,46.1,45.6,29.70,WSW,238,8.0,10.0,98,0.00,,,0.64,Wunderground v.1.15,2013-05-24 14:21:00,
2013-05-24 10:22:00,46.1,45.6,29.70,NW,307,5.0,10.0,98,0.00,,,0.64,Wunderground v.1.15,2013-05-24 14:22:00,
2013-05-24 10:24:00,45.9,45.1,29.70,North,355,4.0,14.0,97,0.00,,,0.64,Wunderground v.1.15,2013-05-24 14:24:00,
2013-05-24 10:25:00,45.9,45.1,29.70,NNW,335,3.0,14.0,97,0.00,,,0.64,Wunderground v.1.15,2013-05-24 14:25:00,
2013-05-24 10:26:00,45.8,45.3,29.70,North,351,4.0,14.0,98,0.00,,,0.64,Wunderground v.1.15,2013-05-24 14:26:00,
2013-05-24 10:27:00,45.8,45.3,29.70,WSW,242,5.0,14.0,98,0.00,,,0.64,Wunderground v.1.15,2013-05-24 14:27:00,
2013-05-24 10:28:00,45.8,45.3,29.70,NNE,12,6.0,14.0,98,0.00,,,0.64,Wunderground v.1.15,2013-05-24 14:28:00,
2013-05-24 10:30:00,45.9,45.4,29.70,North,5,3.0,14.0,98,0.00,,,0.64,Wunderground v.1.15,2013-05-24 14:30:00,
2013-05-24 10:31:00,45.8,45.3,29.70,North,355,2.0,8.0,98,0.00,,,0.64,Wunderground v.1.15,2013-05-24 14:31:00,
2013-05-24 10:32:00,45.8,45.3,29.70,NW,318,4.0,16.0,98,0.00,,,0.64,Wunderground v.1.15,2013-05-24 14:32:00,
2013-05-24 10:33:00,45.8,45.3,29.70,North,5,5.0,16.0,98,0.00,,,0.64,Wunderground v.1.15,2013-05-24 14:33:00,
2013-05-24 10:35:00,45.8,45.3,29.70,SW,232,3.0,16.0,98,0.00,,,0.64,Wunderground v.1.15,2013-05-24 14:35:00,
2013-05-24 10:36:00,45.8,45.3,29.70,West,259,5.0,16.0,98,0.00,,,0.64,Wunderground v.1.15,2013-05-24 14:36:00,
2013-05-24 10:38:00,45.8,45.3,29.70,NNE,23,6.0,16.0,98,0.00,,,0.64,Wunderground v.1.15,2013-05-24 14:38:00,
2013-05-24 10:40:00,45.8,45.3,29.70,WSW,238,0.0,16.0,98,0.00,,,0.64,Wunderground v.1.15,2013-05-24 14:40:00,
2013-05-24 10:41:00,45.8,45.3,29.70,West,259,8.0,9.0,98,0.00,,,0.64,Wunderground v.1.15,2013-05-24 14:41:00,
2013-05-24 10:43:00,45.7,45.2,29.69,North,9,8.0,11.0,98,0.00,,,0.64,Wunderground v.1.15,2013-05-24 14:43:00,
2013-05-24 10:45:00,45.8,45.3,29.69,SW,229,2.0,11.0,98,0.00,,,0.64,Wunderground v.1.15,2013-05-24 14:45:00,
2013-05-24 10:47:00,46.0,45.5,29.69,SW,226,4.0,11.0,98,0.00,,,0.64,Wunderground v.1.15,2013-05-24 14:47:00,
2013-05-24 10:48:00,46.0,45.5,29.69,WSW,246,1.0,11.0,98,0.00,,,0.64,Wunderground v.1.15,2013-05-24 14:48:00,
2013-05-24 10:50:00,46.2,45.7,29.70,West,271,0.0,4.0,98,0.00,,,0.64,Wunderground v.1.15,2013-05-24 14:50:00,
2013-05-24 10:51:00,46.2,45.7,29.70,NNE,31,2.0,5.0,98,0.00,,,0.64,Wunderground v.1.15,2013-05-24 14:51:00,
2013-05-24 10:52:00,46.2,45.7,29.70,WSW,248,6.0,7.0,98,0.00,,,0.64,Wunderground v.1.15,2013-05-24 14:52:00,
2013-05-24 10:53:00,46.2,45.7,29.70,NNE,26,4.0,7.0,98,0.00,,,0.64,Wunderground v.1.15,2013-05-24 14:53:00,
2013-05-24 10:55:00,46.1,45.6,29.70,North,360,3.0,9.0,98,0.00,,,0.64,Wunderground v.1.15,2013-05-24 14:55:00,
2013-05-24 10:56:00,46.1,45.6,29.71,NW,309,0.0,9.0,98,0.00,,,0.64,Wunderground v.1.15,2013-05-24 14:56:00,
2013-05-24 10:58:00,46.1,45.6,29.71,West,273,1.0,13.0,98,0.00,,,0.64,Wunderground v.1.15,2013-05-24 14:58:00,
2013-05-24 11:00:00,46.2,45.7,29.71,NNW,333,4.0,5.0,98,0.00,,,0.64,Wunderground v.1.15,2013-05-24 15:00:00,
2013-05-24 11:02:00,46.3,45.8,29.71,NW,305,2.0,6.0,98,0.00,,,0.64,Wunderground v.1.15,2013-05-24 15:02:00,
2013-05-24 11:03:00,46.3,45.8,29.71,NW,309,10.0,10.0,98,0.00,,,0.64,Wunderground v.1.15,2013-05-24 15:03:00,
2013-05-24 11:06:00,46.3,45.8,29.72,WSW,257,2.0,13.0,98,0.00,,,0.64,Wunderground v.1.15,2013-05-24 15:06:00,
2013-05-24 11:07:00,46.2,45.7,29.72,South,173,7.0,13.0,98,0.00,,,0.64,Wunderground v.1.15,2013-05-24 15:07:00,
2013-05-24 11:08:00,46.0,45.5,29.72,NE,45,4.0,13.0,98,0.00,,,0.64,Wunderground v.1.15,2013-05-24 15:08:00,
2013-05-24 11:11:00,45.9,45.4,29.72,North,360,4.0,7.0,98,0.00,,,0.64,Wunderground v.1.15,2013-05-24 15:11:00,
2013-05-24 11:12:00,45.9,45.4,29.72,SSW,202,5.0,7.0,98,0.00,,,0.64,Wunderground v.1.15,2013-05-24 15:12:00,
2013-05-24 11:13:00,45.9,45.4,29.72,WSW,247,10.0,15.0,98,0.00,,,0.64,Wunderground v.1.15,2013-05-24 15:13:00,
2013-05-24 11:14:00,45.9,45.4,29.72,North,355,11.0,15.0,98,0.00,,,0.64,Wunderground v.1.15,2013-05-24 15:14:00,
2013-05-24 11:17:00,45.8,45.3,29.73,WSW,253,6.0,15.0,98,0.00,,,0.64,Wunderground v.1.15,2013-05-24 15:17:00,
2013-05-24 11:18:00,45.7,45.2,29.73,North,350,12.0,15.0,98,0.00,,,0.64,Wunderground v.1.15,2013-05-24 15:18:00,
2013-05-24 11:19:00,45.7,45.2,29.73,NNW,327,13.0,15.0,98,0.00,,,0.64,Wunderground v.1.15,2013-05-24 15:19:00,
2013-05-24 11:22:00,45.6,45.1,29.73,NW,316,8.0,12.0,98,0.00,,,0.64,Wunderground v.1.15,2013-05-24 15:22:00,
2013-05-24 11:23:00,45.5,44.7,29.73,NNW,335,5.0,15.0,97,0.00,,,0.64,Wunderground v.1.15,2013-05-24 15:23:00,
2013-05-24 11:24:00,45.4,44.6,29.72,NW,319,9.0,15.0,97,0.00,,,0.64,Wunderground v.1.15,2013-05-24 15:24:00,
2013-05-24 11:27:00,45.4,44.6,29.73,WNW,289,2.0,15.0,97,0.00,,,0.64,Wunderground v.1.15,2013-05-24 15:27:00,
2013-05-24 11:28:00,45.4,44.6,29.72,North,10,5.0,15.0,97,0.00,,,0.64,Wunderground v.1.15,2013-05-24 15:28:00,
2013-05-24 11:29:00,45.4,44.6,29.73,SW,228,12.0,18.0,97,0.00,,,0.64,Wunderground v.1.15,2013-05-24 15:29:00,
2013-05-24 11:30:00,45.4,44.6,29.73,WNW,287,3.0,18.0,97,0.00,,,0.64,Wunderground v.1.15,2013-05-24 15:30:00,
2013-05-24 11:32:00,45.3,44.5,29.73,NW,324,7.0,10.0,97,0.00,,,0.64,Wunderground v.1.15,2013-05-24 15:32:00,
2013-05-24 11:34:00,45.2,44.4,29.73,SSW,199,5.0,10.0,97,0.00,,,0.64,Wunderground v.1.15,2013-05-24 15:34:00,
2013-05-24 11:35:00,45.1,44.3,29.73,SSW,192,5.0,11.0,97,0.00,,,0.64,Wunderground v.1.15,2013-05-24 15:35:00,
2013-05-24 11:37:00,45.0,44.2,29.73,WNW,300,12.0,14.0,97,0.00,,,0.64,Wunderground v.1.15,2013-05-24 15:37:00,
2013-05-24 11:39:00,44.9,44.1,29.73,ENE,76,4.0,14.0,97,0.00,,,0.64,Wunderground v.1.15,2013-05-24 15:39:00,
2013-05-24 11:40:00,44.9,44.1,29.73,North,360,4.0,14.0,97,0.00,,,0.64,Wunderground v.1.15,2013-05-24 15:40:00,
2013-05-24 11:42:00,44.9,44.4,29.73,WNW,285,3.0,6.0,98,0.00,,,0.64,Wunderground v.1.15,2013-05-24 15:42:00,
2013-05-24 11:44:00,44.8,44.3,29.73,ENE,66,3.0,7.0,98,0.00,,,0.64,Wunderground v.1.15,2013-05-24 15:44:00,
2013-05-24 11:45:00,44.8,44.3,29.73,NNW,339,4.0,7.0,98,0.00,,,0.64,Wunderground v.1.15,2013-05-24 15:45:00,
2013-05-24 11:46:00,44.8,44.3,29.73,SSW,192,7.0,7.0,98,0.00,,,0.64,Wunderground v.1.15,2013-05-24 15:46:00,
2013-05-24 11:48:00,44.7,44.2,29.73,NE,46,4.0,16.0,98,0.00,,,0.64,Wunderground v.1.15,2013-05-24 15:48:00,
2013-05-24 11:49:00,44.7,44.2,29.73,North,5,8.0,16.0,98,0.00,,,0.64,Wunderground v.1.15,2013-05-24 15:49:00,
2013-05-24 11:50:00,44.7,44.2,29.73,NNE,22,4.0,16.0,98,0.00,,,0.64,Wunderground v.1.15,2013-05-24 15:50:00,
2013-05-24 11:51:00,44.6,44.1,29.73,South,186,5.0,6.0,98,0.00,,,0.64,Wunderground v.1.15,2013-05-24 15:51:00,
2013-05-24 11:53:00,44.6,44.1,29.73,NW,319,5.0,13.0,98,0.00,,,0.64,Wunderground v.1.15,2013-05-24 15:53:00,
2013-05-24 11:55:00,44.6,44.1,29.73,SW,228,5.0,13.0,98,0.00,,,0.64,Wunderground v.1.15,2013-05-24 15:55:00,
2013-05-24 11:56:00,44.7,44.2,29.73,West,270,1.0,13.0,98,0.00,,,0.64,Wunderground v.1.15,2013-05-24 15:56:00,
2013-05-24 11:59:00,44.7,44.2,29.73,NE,35,0.0,13.0,98,0.00,,,0.64,Wunderground v.1.15,2013-05-24 15:59:00,
2013-05-24 12:00:00,44.7,44.2,29.73,WNW,294,7.0,13.0,98,0.00,,,0.64,Wunderground v.1.15,2013-05-24 16:00:00,
2013-05-24 12:01:00,44.6,44.1,29.73,WSW,258,2.0,8.0,98,0.00,,,0.64,Wunderground v.1.15,2013-05-24 16:01:00,
2013-05-24 12:02:00,44.5,44.0,29.73,NW,312,7.0,8.0,98,0.00,,,0.64,Wunderground v.1.15,2013-05-24 16:02:00,
2013-05-24 12:04:00,44.4,43.9,29.74,West,259,11.0,11.0,98,0.00,,,0.64,Wunderground v.1.15,2013-05-24 16:04:00,
2013-05-24 12:05:00,44.3,43.8,29.74,North,5,9.0,20.0,98,0.00,,,0.64,Wunderground v.1.15,2013-05-24 16:05:00,
2013-05-24 12:06:00,44.2,43.7,29.74,NNW,336,11.0,20.0,98,0.00,,,0.64,Wunderground v.1.15,2013-05-24 16:06:00,
2013-05-24 12:07:00,44.1,43.6,29.74,SW,236,5.0,20.0,98,0.00,,,0.64,Wunderground v.1.15,2013-05-24 16:07:00,
2013-05-24 12:09:00,44.1,43.6,29.74,NNW,338,5.0,20.0,98,0.00,,,0.64,Wunderground v.1.15,2013-05-24 16:09:00,
2013-05-24 12:10:00,44.1,43.6,29.74,North,5,7.0,20.0,98,0.00,,,0.64,Wunderground v.1.15,2013-05-24 16:10:00,
2013-05-24 12:11:00,44.0,43.5,29.74,NNW,336,8.0,13.0,98,0.00,,,0.64,Wunderground v.1.15,2013-05-24 16:11:00,
2013-05-24 12:13:00,44.0,43.5,29.74,North,350,7.0,13.0,98,0.00,,,0.64,Wunderground v.1.15,2013-05-24 16:13:00,
2013-05-24 12:14:00,44.0,43.5,29.74,NW,323,1.0,13.0,98,0.00,,,0.64,Wunderground v.1.15,2013-05-24 16:14:00,
2013-05-24 12:15:00,43.9,43.4,29.74,NNW,345,3.0,13.0,98,0.00,,,0.64,Wunderground v.1.15,2013-05-24 16:15:00,
2013-05-24 12:17:00,43.9,43.4,29.74,NW,317,6.0,13.0,98,0.00,,,0.64,Wunderground v.1.15,2013-05-24 16:17:00,
2013-05-24 12:19:00,43.9,43.4,29.74,NNE,13,4.0,14.0,98,0.00,,,0.64,Wunderground v.1.15,2013-05-24 16:19:00,
2013-05-24 12:20:00,43.9,43.4,29.74,WNW,288,3.0,6.0,98,0.00,,,0.64,Wunderground v.1.15,2013-05-24 16:20:00,
2013-05-24 12:22:00,43.9,43.4,29.75,North,10,1.0,6.0,98,0.00,,,0.64,Wunderground v.1.15,2013-05-24 16:22:00,
2013-05-24 12:23:00,43.9,43.4,29.74,NNW,346,2.0,6.0,98,0.00,,,0.64,Wunderground v.1.15,2013-05-24 16:23:00,
2013-05-24 12:24:00,43.9,43.4,29.74,NNW,329,2.0,16.0,98,0.00,,,0.64,Wunderground v.1.15,2013-05-24 16:24:00,
2013-05-24 12:25:00,43.9,43.4,29.74,NNW,348,12.0,16.0,98,0.00,,,0.64,Wunderground v.1.15,2013-05-24 16:25:00,
2013-05-24 12:27:00,43.8,43.3,29.74,NNW,347,6.0,16.0,98,0.00,,,0.64,Wunderground v.1.15,2013-05-24 16:27:00,
2013-05-24 12:28:00,43.8,43.3,29.75,North,9,5.0,16.0,98,0.00,,,0.64,Wunderground v.1.15,2013-05-24 16:28:00,
2013-05-24 12:30:00,43.8,43.3,29.75,NE,38,13.0,16.0,98,0.00,,,0.64,Wunderground v.1.15,2013-05-24 16:30:00,
2013-05-24 12:31:00,43.7,43.2,29.74,WSW,251,4.0,5.0,98,0.00,,,0.64,Wunderground v.1.15,2013-05-24 16:31:00,
2013-05-24 12:32:00,43.7,43.2,29.75,NNE,27,6.0,14.0,98,0.00,,,0.64,Wunderground v.1.15,2013-05-24 16:32:00,
2013-05-24 12:33:00,43.7,43.2,29.75,NE,51,5.0,15.0,98,0.00,,,0.64,Wunderground v.1.15,2013-05-24 16:33:00,
2013-05-24 12:35:00,43.6,43.1,29.75,WSW,257,2.0,15.0,98,0.00,,,0.64,Wunderground v.1.15,2013-05-24 16:35:00,
2013-05-24 12:36:00,43.6,43.1,29.75,West,271,3.0,15.0,98,0.00,,,0.64,Wunderground v.1.15,2013-05-24 16:36:00,
2013-05-24 12:38:00,43.6,43.1,29.75,NNW,327,9.0,15.0,98,0.00,,,0.64,Wunderground v.1.15,2013-05-24 16:38:00,
2013-05-24 12:40:00,43.5,43.0,29.75,NW,318,11.0,11.0,98,0.00,,,0.64,Wunderground v.1.15,2013-05-24 16:40:00,
2013-05-24 12:41:00,43.4,42.9,29.75,West,259,8.0,11.0,98,0.00,,,0.64,Wunderground v.1.15,2013-05-24 16:41:00,
2013-05-24 12:43:00,43.4,42.9,29.75,NNW,337,7.0,11.0,98,0.00,,,0.64,Wunderground v.1.15,2013-05-24 16:43:00,
2013-05-24 12:44:00,43.4,42.9,29.75,NW,322,4.0,11.0,98,0.00,,,0.64,Wunderground v.1.15,2013-05-24 16:44:00,
2013-05-24 12:45:00,43.3,42.8,29.75,NE,53,1.0,11.0,98,0.00,,,0.64,Wunderground v.1.15,2013-05-24 16:45:00,
2013-05-24 12:46:00,43.3,42.8,29.75,SW,235,7.0,11.0,98,0.00,,,0.64,Wunderground v.1.15,2013-05-24 16:46:00,
2013-05-24 12:47:00,43.4,42.9,29.75,North,5,4.0,11.0,98,0.00,,,0.64,Wunderground v.1.15,2013-05-24 16:47:00,
2013-05-24 12:48:00,43.4,42.9,29.75,NNE,28,3.0,11.0,98,0.00,,,0.64,Wunderground v.1.15,2013-05-24 16:48:00,
2013-05-24 12:49:00,43.4,42.9,29.75,ENE,59,5.0,11.0,98,0.00,,,0.64,Wunderground v.1.15,2013-05-24 16:49:00,
2013-05-24 12:51:00,43.4,42.9,29.75,NNW,344,13.0,13.0,98,0.00,,,0.64,Wunderground v.1.15,2013-05-24 16:51:00,
2013-05-24 12:52:00,43.2,42.7,29.75,North,355,4.0,13.0,98,0.00,,,0.64,Wunderground v.1.15,2013-05-24 16:52:00,
2013-05-24 12:53:00,43.2,42.7,29.76,NW,324,5.0,13.0,98,0.00,,,0.64,Wunderground v.1.15,2013-05-24 16:53:00,
2013-05-24 12:54:00,43.2,42.7,29.75,North,349,8.0,13.0,98,0.00,,,0.64,Wunderground v.1.15,2013-05-24 16:54:00,
2013-05-24 12:56:00,43.2,42.7,29.75,NNE,32,2.0,13.0,98,0.00,,,0.64,Wunderground v.1.15,2013-05-24 16:56:00,
2013-05-24 12:57:00,43.2,42.7,29.75,NW,322,0.0,13.0,98,0.00,,,0.64,Wunderground v.1.15,2013-05-24 16:57:00,
2013-05-24 12:58:00,43.1,42.6,29.75,SSE,163,6.0,13.0,98,0.00,,,0.64,Wunderground v.1.15,2013-05-24 16:58:00,
2013-05-24 12:59:00,43.2,42.7,29.75,NE,56,1.0,13.0,98,0.00,,,0.64,Wunderground v.1.15,2013-05-24 16:59:00,
2013-05-24 13:01:00,43.1,42.6,29.75,North,350,6.0,9.0,98,0.00,,,0.64,Wunderground v.1.15,2013-05-24 17:01:00,
2013-05-24 13:02:00,43.0,42.5,29.75,NNW,347,10.0,12.0,98,0.00,,,0.64,Wunderground v.1.15,2013-05-24 17:02:00,
2013-05-24 13:03:00,43.0,42.5,29.75,North,351,5.0,12.0,98,0.00,,,0.64,Wunderground v.1.15,2013-05-24 17:03:00,
2013-05-24 13:04:00,43.0,42.5,29.75,NNW,346,7.0,12.0,98,0.00,,,0.64,Wunderground v.1.15,2013-05-24 17:04:00,
2013-05-24 13:06:00,42.9,42.4,29.75,WNW,302,2.0,12.0,98,0.00,,,0.64,Wunderground v.1.15,2013-05-24 17:06:00,
2013-05-24 13:07:00,42.9,42.4,29.75,NW,310,1.0,12.0,98,0.00,,,0.64,Wunderground v.1.15,2013-05-24 17:07:00,
2013-05-24 13:08:00,42.7,42.2,29.75,WNW,290,8.0,18.0,98,0.00,,,0.64,Wunderground v.1.15,2013-05-24 17:08:00,
2013-05-24 13:09:00,42.7,42.2,29.75,West,271,8.0,18.0,98,0.00,,,0.64,Wunderground v.1.15,2013-05-24 17:09:00,
2013-05-24 13:11:00,42.6,42.1,29.76,ENE,65,3.0,14.0,98,0.00,,,0.64,Wunderground v.1.15,2013-05-24 17:11:00,
2013-05-24 13:12:00,42.5,42.0,29.76,SE,136,0.0,14.0,98,0.00,,,0.64,Wunderground v.1.15,2013-05-24 17:12:00,
2013-05-24 13:13:00,42.5,42.0,29.76,North,9,7.0,14.0,98,0.00,,,0.64,Wunderground v.1.15,2013-05-24 17:13:00,
2013-05-24 13:14:00,42.5,42.0,29.76,SSE,150,7.0,14.0,98,0.00,,,0.64,Wunderground v.1.15,2013-05-24 17:14:00,
2013-05-24 13:15:00,42.4,41.9,29.76,West,263,5.0,14.0,98,0.00,,,0.64,Wunderground v.1.15,2013-05-24 17:15:00,
2013-05-24 13:16:00,42.4,41.9,29.75,NNE,32,1.0,14.0,98,0.00,,,0.64,Wunderground v.1.15,2013-05-24 17:16:00,
2013-05-24 13:18:00,42.3,41.8,29.76,WNW,296,6.0,14.0,98,0.00,,,0.64,Wunderground v.1.15,2013-05-24 17:18:00,
2013-05-24 13:19:00,42.3,41.8,29.76,ENE,64,0.0,14.0,98,0.00,,,0.64,Wunderground v.1.15,2013-05-24 17:19:00,
2013-05-24 13:20:00,42.3,41.8,29.76,NW,316,9.0,16.0,98,0.00,,,0.64,Wunderground v.1.15,2013-05-24 17:20:00,
2013-05-24 13:21:00,42.3,41.8,29.76,SSE,167,1.0,16.0,98,0.00,,,0.64,Wunderground v.1.15,2013-05-24 17:21:00,
2013-05-24 13:23:00,42.2,41.7,29.76,SW,221,4.0,16.0,98,0.00,,,0.64,Wunderground v.1.15,2013-05-24 17:23:00,
2013-05-24 13:24:00,42.2,41.7,29.77,NE,43,1.0,16.0,98,0.00,,,0.64,Wunderground v.1.15,2013-05-24 17:24:00,
2013-05-24 13:26:00,42.2,41.7,29.76,NNW,346,5.0,16.0,98,0.00,,,0.64,Wunderground v.1.15,2013-05-24 17:26:00,
2013-05-24 13:27:00,42.3,41.8,29.76,SSE,150,7.0,16.0,98,0.00,,,0.64,Wunderground v.1.15,2013-05-24 17:27:00,
2013-05-24 13:28:00,42.2,41.7,29.76,WNW,300,7.0,16.0,98,0.00,,,0.64,Wunderground v.1.15,2013-05-24 17:28:00,
2013-05-24 13:29:00,42.2,41.7,29.76,NNE,17,9.0,16.0,98,0.00,,,0.64,Wunderground v.1.15,2013-05-24 17:29:00,
2013-05-24 13:32:00,42.2,41.7,29.76,North,360,8.0,12.0,98,0.00,,,0.64,Wunderground v.1.15,2013-05-24 17:32:00,
2013-05-24 13:33:00,42.3,42.0,29.76,North,5,8.0,12.0,99,0.00,,,0.64,Wunderground v.1.15,2013-05-24 17:33:00,
2013-05-24 13:34:00,42.3,42.0,29.76,NW,326,4.0,12.0,99,0.00,,,0.64,Wunderground v.1.15,2013-05-24 17:34:00,
2013-05-24 13:37:00,42.4,42.1,29.76,North,355,8.0,12.0,99,0.00,,,0.64,Wunderground v.1.15,2013-05-24 17:37:00,
2013-05-24 13:39:00,42.4,42.1,29.76,NE,38,5.0,12.0,99,0.00,,,0.64,Wunderground v.1.15,2013-05-24 17:39:00,
2013-05-24 13:40:00,42.4,42.1,29.76,North,5,8.0,12.0,99,0.00,,,0.64,Wunderground v.1.15,2013-05-24 17:40:00,
2013-05-24 13:42:00,42.5,42.2,29.76,NW,306,6.0,9.0,99,0.00,,,0.64,Wunderground v.1.15,2013-05-24 17:42:00,
2013-05-24 13:44:00,42.5,42.2,29.76,North,355,5.0,16.0,99,0.00,,,0.64,Wunderground v.1.15,2013-05-24 17:44:00,
2013-05-24 13:45:00,42.5,42.2,29.77,North,360,2.0,16.0,99,0.00,,,0.64,Wunderground v.1.15,2013-05-24 17:45:00,
2013-05-24 13:47:00,42.5,42.2,29.76,West,275,7.0,16.0,99,0.00,,,0.64,Wunderground v.1.15,2013-05-24 17:47:00,
2013-05-24 13:49:00,42.6,42.3,29.76,SSW,205,1.0,16.0,99,0.00,,,0.64,Wunderground v.1.15,2013-05-24 17:49:00,
2013-05-24 13:50:00,42.6,42.3,29.76,NNW,338,5.0,16.0,99,0.00,,,0.64,Wunderground v.1.15,2013-05-24 17:50:00,
2013-05-24 13:53:00,42.8,42.5,29.77,NE,35,11.0,11.0,99,0.00,,,0.64,Wunderground v.1.15,2013-05-24 17:53:00,
2013-05-24 13:54:00,42.8,42.5,29.76,NNE,29,6.0,11.0,99,0.00,,,0.64,Wunderground v.1.15,2013-05-24 17:54:00,
2013-05-24 13:55:00,42.8,42.5,29.76,NNW,347,5.0,11.0,99,0.00,,,0.64,Wunderground v.1.15,2013-05-24 17:55:00,
2013-05-24 13:56:00,42.8,42.5,29.76,NNW,342,6.0,12.0,99,0.00,,,0.64,Wunderground v.1.15,2013-05-24 17:56:00,
2013-05-24 13:58:00,42.7,42.4,29.76,NNW,339,11.0,14.0,99,0.00,,,0.64,Wunderground v.1.15,2013-05-24 17:58:00,
2013-05-24 13:59:00,42.7,42.4,29.76,NNW,343,2.0,14.0,99,0.00,,,0.64,Wunderground v.1.15,2013-05-24 17:59:00,
2013-05-24 14:00:00,42.7,42.4,29.76,NW,321,0.0,14.0,99,0.00,,,0.64,Wunderground v.1.15,2013-05-24 18:00:00,
2013-05-24 14:01:00,42.8,42.5,29.76,NW,311,7.0,7.0,99,0.00,,,0.64,Wunderground v.1.15,2013-05-24 18:01:00,
2013-05-24 14:02:00,42.8,42.5,29.76,West,279,6.0,15.0,99,0.00,,,0.64,Wunderground v.1.15,2013-05-24 18:02:00,
2013-05-24 14:04:00,42.9,42.6,29.76,SW,221,3.0,15.0,99,0.00,,,0.64,Wunderground v.1.15,2013-05-24 18:04:00,
2013-05-24 14:05:00,42.9,42.6,29.76,WSW,241,2.0,15.0,99,0.00,,,0.64,Wunderground v.1.15,2013-05-24 18:05:00,
2013-05-24 14:06:00,42.9,42.6,29.76,WSW,248,11.0,15.0,99,0.00,,,0.64,Wunderground v.1.15,2013-05-24 18:06:00,
2013-05-24 14:08:00,42.9,42.6,29.77,WNW,298,5.0,15.0,99,0.00,,,0.64,Wunderground v.1.15,2013-05-24 18:08:00,
2013-05-24 14:09:00,42.9,42.6,29.77,NNE,21,6.0,15.0,99,0.00,,,0.64,Wunderground v.1.15,2013-05-24 18:09:00,
2013-05-24 14:10:00,42.9,42.6,29.77,NE,39,6.0,15.0,99,0.00,,,0.64,Wunderground v.1.15,2013-05-24 18:10:00,
2013-05-24 14:11:00,42.9,42.6,29.76,NE,40,0.0,12.0,99,0.00,,,0.64,Wunderground v.1.15,2013-05-24 18:11:00,
2013-05-24 14:13:00,42.9,42.6,29.76,NNW,338,7.0,12.0,99,0.00,,,0.64,Wunderground v.1.15,2013-05-24 18:13:00,
2013-05-24 14:14:00,43.0,42.7,29.77,NNE,26,3.0,12.0,99,0.00,,,0.64,Wunderground v.1.15,2013-05-24 18:14:00,
2013-05-24 14:15:00,43.0,42.7,29.76,West,268,11.0,12.0,99,0.00,,,0.64,Wunderground v.1.15,2013-05-24 18:15:00,
2013-05-24 14:17:00,42.9,42.6,29.76,ESE,113,0.0,12.0,99,0.00,,,0.64,Wunderground v.1.15,2013-05-24 18:17:00,
2013-05-24 14:18:00,42.9,42.6,29.77,NNW,331,4.0,12.0,99,0.00,,,0.64,Wunderground v.1.15,2013-05-24 18:18:00,
2013-05-24 14:19:00,42.8,42.5,29.77,South,185,8.0,14.0,99,0.00,,,0.64,Wunderground v.1.15,2013-05-24 18:19:00,
2013-05-24 14:20:00,42.8,42.5,29.77,South,185,8.0,14.0,99,0.00,,,0.64,Wunderground v.1.15,2013-05-24 18:20:00,
2013-05-24 14:22:00,42.7,42.4,29.77,NE,49,3.0,9.0,99,0.00,,,0.64,Wunderground v.1.15,2013-05-24 18:22:00,
2013-05-24 14:23:00,42.7,42.4,29.76,West,268,5.0,12.0,99,0.00,,,0.64,Wunderground v.1.15,2013-05-24 18:23:00,
2013-05-24 14:25:00,42.7,42.4,29.77,WNW,286,4.0,14.0,99,0.00,,,0.64,Wunderground v.1.15,2013-05-24 18:25:00,
2013-05-24 14:29:00,42.7,42.4,29.77,NNW,331,12.0,16.0,99,0.00,,,0.64,Wunderground v.1.15,2013-05-24 18:29:00,
2013-05-24 14:30:00,42.7,42.4,29.77,WSW,238,2.0,8.0,99,0.00,,,0.64,Wunderground v.1.15,2013-05-24 18:30:00,
2013-05-24 14:34:00,42.6,42.3,29.78,WNW,290,5.0,10.0,99,0.00,,,0.64,Wunderground v.1.15,2013-05-24 18:34:00,
2013-05-24 14:35:00,42.5,42.2,29.78,SSW,205,7.0,10.0,99,0.00,,,0.64,Wunderground v.1.15,2013-05-24 18:35:00,
2013-05-24 14:36:00,42.5,42.2,29.77,NNW,327,8.0,10.0,99,0.00,,,0.64,Wunderground v.1.15,2013-05-24 18:36:00,
2013-05-24 14:39:00,42.5,42.2,29.77,SSW,195,2.0,11.0,99,0.00,,,0.64,Wunderground v.1.15,2013-05-24 18:39:00,
2013-05-24 14:40:00,42.5,42.2,29.77,NNW,331,9.0,14.0,99,0.00,,,0.64,Wunderground v.1.15,2013-05-24 18:40:00,
2013-05-24 14:41:00,42.5,42.2,29.77,WSW,249,5.0,14.0,99,0.00,,,0.64,Wunderground v.1.15,2013-05-24 18:41:00,
2013-05-24 14:44:00,42.6,42.3,29.78,NW,309,5.0,19.0,99,0.00,,,0.64,Wunderground v.1.15,2013-05-24 18:44:00,
2013-05-24 14:46:00,42.5,42.2,29.78,WNW,303,6.0,23.0,99,0.00,,,0.64,Wunderground v.1.15,2013-05-24 18:46:00,
2013-05-24 14:49:00,42.3,42.0,29.78,WNW,286,3.0,23.0,99,0.00,,,0.64,Wunderground v.1.15,2013-05-24 18:49:00,
2013-05-24 14:51:00,42.2,41.9,29.78,North,5,18.0,18.0,99,0.00,,,0.64,Wunderground v.1.15,2013-05-24 18:51:00,
2013-05-24 14:54:00,42.2,41.9,29.77,NNW,338,2.0,18.0,99,0.00,,,0.64,Wunderground v.1.15,2013-05-24 18:54:00,
2013-05-24 14:56:00,42.3,42.0,29.78,WNW,300,9.0,18.0,99,0.00,,,0.64,Wunderground v.1.15,2013-05-24 18:56:00,
2013-05-24 15:00:00,42.1,41.8,29.77,NNW,348,5.0,6.0,99,0.00,,,0.64,Wunderground v.1.15,2013-05-24 19:00:00,
2013-05-24 15:01:00,42.1,41.8,29.78,West,279,5.0,14.0,99,0.00,,,0.64,Wunderground v.1.15,2013-05-24 19:01:00,
2013-05-24 15:02:00,42.0,41.7,29.78,NNW,341,10.0,14.0,99,0.00,,,0.64,Wunderground v.1.15,2013-05-24 19:02:00,
2013-05-24 15:05:00,42.0,41.7,29.78,NNE,24,3.0,16.0,99,0.00,,,0.64,Wunderground v.1.15,2013-05-24 19:05:00,
2013-05-24 15:06:00,42.0,41.7,29.78,WNW,298,4.0,16.0,99,0.00,,,0.64,Wunderground v.1.15,2013-05-24 19:06:00,
2013-05-24 15:07:00,42.0,41.7,29.79,NNW,343,2.0,16.0,99,0.00,,,0.64,Wunderground v.1.15,2013-05-24 19:07:00,
2013-05-24 15:08:00,42.0,41.7,29.79,ENE,64,7.0,16.0,99,0.00,,,0.64,Wunderground v.1.15,2013-05-24 19:08:00,
2013-05-24 15:10:00,41.9,41.6,29.78,North,5,2.0,6.0,99,0.00,,,0.64,Wunderground v.1.15,2013-05-24 19:10:00,
2013-05-24 15:11:00,41.9,41.6,29.79,North,360,5.0,11.0,99,0.00,,,0.64,Wunderground v.1.15,2013-05-24 19:11:00,
2013-05-24 15:12:00,41.9,41.6,29.79,West,270,8.0,11.0,99,0.00,,,0.64,Wunderground v.1.15,2013-05-24 19:12:00,
2013-05-24 15:13:00,41.9,41.6,29.78,NE,53,3.0,11.0,99,0.00,,,0.64,Wunderground v.1.15,2013-05-24 19:13:00,
2013-05-24 15:15:00,41.9,41.6,29.78,NW,317,5.0,14.0,99,0.00,,,0.64,Wunderground v.1.15,2013-05-24 19:15:00,
2013-05-24 15:16:00,41.9,41.6,29.79,NW,316,4.0,14.0,99,0.00,,,0.64,Wunderground v.1.15,2013-05-24 19:16:00,
2013-05-24 15:17:00,41.8,41.5,29.78,North,360,3.0,14.0,99,0.00,,,0.64,Wunderground v.1.15,2013-05-24 19:17:00,
2013-05-24 15:18:00,41.8,41.5,29.79,NNW,336,7.0,16.0,99,0.00,,,0.64,Wunderground v.1.15,2013-05-24 19:18:00,
2013-05-24 15:21:00,41.8,41.5,29.79,WSW,244,0.0,10.0,99,0.00,,,0.64,Wunderground v.1.15,2013-05-24 19:21:00,
2013-05-24 15:22:00,41.8,41.5,29.79,SSE,157,2.0,10.0,99,0.00,,,0.64,Wunderground v.1.15,2013-05-24 19:22:00,
2013-05-24 15:24:00,41.8,41.5,29.79,NW,307,7.0,16.0,99,0.00,,,0.64,Wunderground v.1.15,2013-05-24 19:24:00,
2013-05-24 15:26:00,41.7,41.4,29.79,SSW,207,2.0,18.0,99,0.00,,,0.64,Wunderground v.1.15,2013-05-24 19:26:00,
2013-05-24 15:27:00,41.7,41.4,29.79,West,274,6.0,18.0,99,0.00,,,0.64,Wunderground v.1.15,2013-05-24 19:27:00,
2013-05-24 15:29:00,41.6,41.3,29.79,North,355,3.0,18.0,99,0.00,,,0.64,Wunderground v.1.15,2013-05-24 19:29:00,
2013-05-24 15:31:00,41.7,41.4,29.79,NNE,20,9.0,9.0,99,0.00,,,0.64,Wunderground v.1.15,2013-05-24 19:31:00,
2013-05-24 15:32:00,41.6,41.3,29.79,North,5,10.0,16.0,99,0.00,,,0.64,Wunderground v.1.15,2013-05-24 19:32:00,
2013-05-24 15:33:00,41.6,41.3,29.79,NNE,26,8.0,16.0,99,0.00,,,0.64,Wunderground v.1.15,2013-05-24 19:33:00,
2013-05-24 15:34:00,41.5,41.2,29.79,North,5,3.0,16.0,99,0.00,,,0.64,Wunderground v.1.15,2013-05-24 19:34:00,
2013-05-24 15:36:00,41.4,41.1,29.79,North,9,4.0,16.0,99,0.00,,,0.64,Wunderground v.1.15,2013-05-24 19:36:00,
2013-05-24 15:37:00,41.4,41.1,29.79,SW,229,3.0,16.0,99,0.00,,,0.64,Wunderground v.1.15,2013-05-24 19:37:00,
2013-05-24 15:38:00,41.5,41.2,29.79,NE,40,18.0,18.0,99,0.00,,,0.64,Wunderground v.1.15,2013-05-24 19:38:00,
2013-05-24 15:40:00,41.3,41.0,29.78,North,349,3.0,21.0,99,0.00,,,0.64,Wunderground v.1.15,2013-05-24 19:40:00,
2013-05-24 15:42:00,41.3,41.0,29.79,NNW,334,6.0,11.0,99,0.00,,,0.64,Wunderground v.1.15,2013-05-24 19:42:00,
2013-05-24 15:43:00,41.3,41.0,29.79,South,189,5.0,14.0,99,0.00,,,0.64,Wunderground v.1.15,2013-05-24 19:43:00,
2013-05-24 15:44:00,41.3,41.0,29.79,WNW,294,3.0,14.0,99,0.00,,,0.64,Wunderground v.1.15,2013-05-24 19:44:00,
2013-05-24 15:45:00,41.3,41.0,29.79,NNW,336,11.0,14.0,99,0.00,,,0.64,Wunderground v.1.15,2013-05-24 19:45:00,
2013-05-24 15:47:00,41.3,41.0,29.79,NW,320,11.0,20.0,99,0.00,,,0.64,Wunderground v.1.15,2013-05-24 19:47:00,
2013-05-24 15:48:00,41.2,40.9,29.79,North,350,8.0,20.0,99,0.00,,,0.64,Wunderground v.1.15,2013-05-24 19:48:00,
2013-05-24 15:49:00,41.1,40.8,29.79,SW,221,2.0,20.0,99,0.00,,,0.64,Wunderground v.1.15,2013-05-24 19:49:00,
2013-05-24 15:50:00,41.2,40.9,29.79,West,281,3.0,6.0,99,0.00,,,0.64,Wunderground v.1.15,2013-05-24 19:50:00,
2013-05-24 15:52:00,41.3,41.0,29.79,West,281,3.0,12.0,99,0.00,,,0.64,Wunderground v.1.15,2013-05-24 19:52:00,
2013-05-24 15:53:00,41.3,41.0,29.79,WNW,296,8.0,12.0,99,0.00,,,0.64,Wunderground v.1.15,2013-05-24 19:53:00,
2013-05-24 15:54:00,41.2,40.9,29.79,WNW,296,1.0,12.0,99,0.00,,,0.64,Wunderground v.1.15,2013-05-24 19:54:00,
2013-05-24 15:56:00,41.1,40.8,29.80,WSW,246,8.0,12.0,99,0.00,,,0.64,Wunderground v.1.15,2013-05-24 19:56:00,
2013-05-24 15:57:00,41.1,40.8,29.80,North,355,11.0,12.0,99,0.00,,,0.64,Wunderground v.1.15,2013-05-24 19:57:00,
2013-05-24 15:58:00,41.1,40.8,29.80,North,355,11.0,12.0,99,0.00,,,0.64,Wunderground v.1.15,2013-05-24 19:58:00,
2013-05-24 15:59:00,41.0,40.7,29.79,NNW,336,3.0,12.0,99,0.00,,,0.64,Wunderground v.1.15,2013-05-24 19:59:00,
2013-05-24 16:01:00,41.0,40.7,29.80,NNW,347,3.0,5.0,99,0.00,,,0.64,Wunderground v.1.15,2013-05-24 20:01:00,
2013-05-24 16:02:00,41.0,40.7,29.80,NW,304,5.0,9.0,99,0.00,,,0.64,Wunderground v.1.15,2013-05-24 20:02:00,
2013-05-24 16:03:00,41.1,40.8,29.80,NNW,334,6.0,9.0,99,0.00,,,0.64,Wunderground v.1.15,2013-05-24 20:03:00,
2013-05-24 16:04:00,41.1,40.8,29.80,North,355,3.0,11.0,99,0.00,,,0.64,Wunderground v.1.15,2013-05-24 20:04:00,
2013-05-24 16:06:00,41.0,40.7,29.80,NNW,342,3.0,11.0,99,0.00,,,0.64,Wunderground v.1.15,2013-05-24 20:06:00,
2013-05-24 16:07:00,41.0,40.7,29.80,WNW,294,4.0,11.0,99,0.00,,,0.64,Wunderground v.1.15,2013-05-24 20:07:00,
2013-05-24 16:09:00,41.0,40.7,29.80,NW,306,5.0,11.0,99,0.00,,,0.64,Wunderground v.1.15,2013-05-24 20:09:00,
2013-05-24 16:11:00,41.0,41.0,29.80,NE,46,2.0,14.0,100,0.00,,,0.64,Wunderground v.1.15,2013-05-24 20:11:00,
2013-05-24 16:12:00,40.9,40.6,29.80,NNW,338,5.0,14.0,99,0.00,,,0.64,Wunderground v.1.15,2013-05-24 20:12:00,
2013-05-24 16:15:00,40.9,40.6,29.80,WSW,254,0.0,14.0,99,0.00,,,0.64,Wunderground v.1.15,2013-05-24 20:15:00,
2013-05-24 16:17:00,40.8,40.5,29.80,North,5,4.0,16.0,99,0.00,,,0.64,Wunderground v.1.15,2013-05-24 20:17:00,
2013-05-24 16:18:00,40.8,40.5,29.80,NW,313,3.0,16.0,99,0.00,,,0.64,Wunderground v.1.15,2013-05-24 20:18:00,
2013-05-24 16:20:00,40.7,40.4,29.80,SSE,158,7.0,16.0,99,0.00,,,0.64,Wunderground v.1.15,2013-05-24 20:20:00,
2013-05-24 16:22:00,40.7,40.4,29.80,NNE,21,4.0,14.0,99,0.00,,,0.64,Wunderground v.1.15,2013-05-24 20:22:00,
2013-05-24 16:23:00,40.7,40.4,29.80,WNW,288,4.0,14.0,99,0.00,,,0.64,Wunderground v.1.15,2013-05-24 20:23:00,
2013-05-24 16:25:00,40.8,40.5,29.80,WSW,247,4.0,14.0,99,0.00,,,0.64,Wunderground v.1.15,2013-05-24 20:25:00,
2013-05-24 16:26:00,40.8,40.5,29.80,NNW,331,4.0,14.0,99,0.00,,,0.64,Wunderground v.1.15,2013-05-24 20:26:00,
2013-05-24 16:27:00,40.8,40.5,29.80,North,355,0.0,14.0,99,0.00,,,0.64,Wunderground v.1.15,2013-05-24 20:27:00,
2013-05-24 16:29:00,40.8,40.5,29.80,West,279,7.0,14.0,99,0.00,,,0.64,Wunderground v.1.15,2013-05-24 20:29:00,
2013-05-24 16:30:00,40.8,40.5,29.80,SSW,213,9.0,9.0,99,0.00,,,0.64,Wunderground v.1.15,2013-05-24 20:30:00,
2013-05-24 16:31:00,40.8,40.5,29.80,North,355,4.0,10.0,99,0.00,,,0.64,Wunderground v.1.15,2013-05-24 20:31:00,
2013-05-24 16:32:00,40.8,40.5,29.80,NNW,347,1.0,10.0,99,0.00,,,0.64,Wunderground v.1.15,2013-05-24 20:32:00,
2013-05-24 16:33:00,40.8,40.5,29.80,North,11,5.0,10.0,99,0.00,,,0.64,Wunderground v.1.15,2013-05-24 20:33:00,
2013-05-24 16:34:00,40.8,40.5,29.80,North,355,10.0,10.0,99,0.00,,,0.64,Wunderground v.1.15,2013-05-24 20:34:00,
2013-05-24 16:36:00,40.7,40.4,29.80,NNW,346,5.0,19.0,99,0.00,,,0.64,Wunderground v.1.15,2013-05-24 20:36:00,
2013-05-24 16:37:00,40.7,40.4,29.80,WNW,284,1.0,19.0,99,0.00,,,0.64,Wunderground v.1.15,2013-05-24 20:37:00,
2013-05-24 16:38:00,40.7,40.4,29.80,NNE,25,1.0,19.0,99,0.00,,,0.64,Wunderground v.1.15,2013-05-24 20:38:00,
2013-05-24 16:40:00,40.7,40.4,29.80,SE,135,4.0,6.0,99,0.00,,,0.64,Wunderground v.1.15,2013-05-24 20:40:00,
2013-05-24 16:41:00,40.7,40.4,29.80,WNW,298,0.0,6.0,99,0.00,,,0.64,Wunderground v.1.15,2013-05-24 20:41:00,
2013-05-24 16:42:00,40.7,40.4,29.80,NNW,327,7.0,9.0,99,0.00,,,0.64,Wunderground v.1.15,2013-05-24 20:42:00,
2013-05-24 16:44:00,40.7,40.4,29.80,WNW,301,7.0,12.0,99,0.00,,,0.64,Wunderground v.1.15,2013-05-24 20:44:00,
2013-05-24 16:46:00,40.7,40.4,29.80,West,265,6.0,13.0,99,0.00,,,0.64,Wunderground v.1.15,2013-05-24 20:46:00,
2013-05-24 16:47:00,40.7,40.4,29.80,North,351,10.0,13.0,99,0.00,,,0.64,Wunderground v.1.15,2013-05-24 20:47:00,
2013-05-24 16:49:00,40.7,40.4,29.81,NNW,340,5.0,14.0,99,0.00,,,0.64,Wunderground v.1.15,2013-05-24 20:49:00,
2013-05-24 16:51:00,40.7,40.4,29.81,NNW,344,4.0,15.0,99,0.00,,,0.64,Wunderground v.1.15,2013-05-24 20:51:00,
2013-05-24 16:52:00,40.7,40.4,29.80,NNW,344,2.0,15.0,99,0.00,,,0.64,Wunderground v.1.15,2013-05-24 20:52:00,
2013-05-24 16:55:00,40.5,40.2,29.81,NNW,346,9.0,15.0,99,0.00,,,0.64,Wunderground v.1.15,2013-05-24 20:55:00,
2013-05-24 16:56:00,40.5,40.2,29.81,WNW,286,5.0,15.0,99,0.00,,,0.65,Wunderground v.1.15,2013-05-24 20:56:00,
2013-05-24 16:57:00,40.5,40.2,29.80,NW,313,5.0,15.0,99,0.00,,,0.65,Wunderground v.1.15,2013-05-24 20:57:00,
2013-05-24 17:00:00,40.4,40.1,29.80,East,98,5.0,15.0,99,0.00,,,0.65,Wunderground v.1.15,2013-05-24 21:00:00,
2013-05-24 17:01:00,40.4,40.1,29.81,NE,50,5.0,16.0,99,0.00,,,0.65,Wunderground v.1.15,2013-05-24 21:01:00,
2013-05-24 17:02:00,40.4,40.1,29.81,WSW,258,7.0,16.0,99,0.00,,,0.65,Wunderground v.1.15,2013-05-24 21:02:00,
2013-05-24 17:03:00,40.3,40.0,29.81,NW,306,3.0,16.0,99,0.00,,,0.65,Wunderground v.1.15,2013-05-24 21:03:00,
2013-05-24 17:06:00,40.3,40.0,29.81,WNW,295,5.0,17.0,99,0.00,,,0.65,Wunderground v.1.15,2013-05-24 21:06:00,
2013-05-24 17:07:00,40.3,40.0,29.81,North,355,4.0,17.0,99,0.00,,,0.65,Wunderground v.1.15,2013-05-24 21:07:00,
2013-05-24 17:08:00,40.2,39.9,29.80,West,259,5.0,17.0,99,0.00,,,0.65,Wunderground v.1.15,2013-05-24 21:08:00,
2013-05-24 17:11:00,40.2,39.9,29.81,NNW,342,8.0,13.0,99,0.00,,,0.65,Wunderground v.1.15,2013-05-24 21:11:00,
2013-05-24 17:12:00,40.2,39.9,29.81,North,9,9.0,13.0,99,0.00,,,0.65,Wunderground v.1.15,2013-05-24 21:12:00,
2013-05-24 17:13:00,40.2,39.9,29.81,NNE,17,10.0,13.0,99,0.00,,,0.65,Wunderground v.1.15,2013-05-24 21:13:00,
2013-05-24 17:14:00,40.2,39.9,29.81,WNW,298,10.0,17.0,99,0.00,,,0.65,Wunderground v.1.15,2013-05-24 21:14:00,
2013-05-24 17:16:00,40.1,39.8,29.82,NW,317,8.0,17.0,99,0.00,,,0.65,Wunderground v.1.15,2013-05-24 21:16:00,
2013-05-24 17:17:00,40.1,39.8,29.81,WNW,288,3.0,17.0,99,0.00,,,0.65,Wunderground v.1.15,2013-05-24 21:17:00,
2013-05-24 17:18:00,40.1,39.8,29.81,SW,232,0.0,17.0,99,0.00,,,0.65,Wunderground v.1.15,2013-05-24 21:18:00,
2013-05-24 17:20:00,40.1,39.8,29.81,NW,306,2.0,17.0,99,0.00,,,0.65,Wunderground v.1.15,2013-05-24 21:20:00,
2013-05-24 17:21:00,40.1,39.8,29.81,NNE,23,3.0,12.0,99,0.00,,,0.65,Wunderground v.1.15,2013-05-24 21:21:00,
2013-05-24 17:22:00,40.1,39.8,29.81,North,355,14.0,14.0,99,0.00,,,0.65,Wunderground v.1.15,2013-05-24 21:22:00,
2013-05-24 17:23:00,40.0,39.7,29.81,North,9,8.0,17.0,99,0.00,,,0.65,Wunderground v.1.15,2013-05-24 21:23:00,
2013-05-24 17:24:00,40.0,39.7,29.81,North,360,11.0,17.0,99,0.00,,,0.65,Wunderground v.1.15,2013-05-24 21:24:00,
2013-05-24 17:25:00,39.9,39.6,29.82,NNE,12,2.0,17.0,99,0.00,,,0.65,Wunderground v.1.15,2013-05-24 21:25:00,
2013-05-24 17:27:00,39.9,39.6,29.81,NW,322,9.0,17.0,99,0.00,,,0.65,Wunderground v.1.15,2013-05-24 21:27:00,
2013-05-24 17:29:00,39.9,39.6,29.81,North,360,5.0,17.0,99,0.00,,,0.65,Wunderground v.1.15,2013-05-24 21:29:00,
2013-05-24 17:30:00,39.9,39.6,29.82,NW,309,15.0,17.0,99,0.00,,,0.65,Wunderground v.1.15,2013-05-24 21:30:00,
2013-05-24 17:32:00,39.9,39.6,29.82,NNE,19,4.0,16.0,99,0.00,,,0.65,Wunderground v.1.15,2013-05-24 21:32:00,
2013-05-24 17:34:00,39.9,39.6,29.81,NNW,346,9.0,16.0,99,0.00,,,0.65,Wunderground v.1.15,2013-05-24 21:34:00,
2013-05-24 17:35:00,39.9,39.6,29.82,North,349,4.0,17.0,99,0.00,,,0.65,Wunderground v.1.15,2013-05-24 21:35:00,
2013-05-24 17:37:00,39.9,39.6,29.81,NNW,348,3.0,17.0,99,0.00,,,0.65,Wunderground v.1.15,2013-05-24 21:37:00,
2013-05-24 17:38:00,39.9,39.6,29.81,North,5,9.0,17.0,99,0.00,,,0.65,Wunderground v.1.15,2013-05-24 21:38:00,
2013-05-24 17:39:00,39.9,39.6,29.81,NW,308,3.0,20.0,99,0.00,,,0.65,Wunderground v.1.15,2013-05-24 21:39:00,
2013-05-24 17:40:00,39.9,39.6,29.81,East,87,3.0,20.0,99,0.00,,,0.65,Wunderground v.1.15,2013-05-24 21:40:00,
2013-05-24 17:42:00,39.9,39.6,29.81,NNW,345,5.0,14.0,99,0.00,,,0.65,Wunderground v.1.15,2013-05-24 21:42:00,
2013-05-24 17:43:00,39.9,39.6,29.81,West,276,3.0,14.0,99,0.00,,,0.65,Wunderground v.1.15,2013-05-24 21:43:00,
2013-05-24 17:44:00,39.9,39.6,29.81,SSW,207,10.0,14.0,99,0.00,,,0.65,Wunderground v.1.15,2013-05-24 21:44:00,
2013-05-24 17:45:00,39.9,39.6,29.81,NE,55,4.0,14.0,99,0.00,,,0.65,Wunderground v.1.15,2013-05-24 21:45:00,
2013-05-24 17:46:00,39.9,39.6,29.81,NNE,22,16.0,16.0,99,0.00,,,0.65,Wunderground v.1.15,2013-05-24 21:46:00,
2013-05-24 17:47:00,39.9,39.6,29.81,NE,38,5.0,16.0,99,0.00,,,0.65,Wunderground v.1.15,2013-05-24 21:47:00,
2013-05-24 17:48:00,39.9,39.6,29.81,NNE,17,0.0,16.0,99,0.00,,,0.65,Wunderground v.1.15,2013-05-24 21:48:00,
2013-05-24 17:50:00,39.9,39.6,29.81,WNW,293,2.0,16.0,99,0.00,,,0.65,Wunderground v.1.15,2013-05-24 21:50:00,
2013-05-24 17:52:00,39.9,39.6,29.81,NNW,332,12.0,12.0,99,0.00,,,0.66,Wunderground v.1.15,2013-05-24 21:52:00,
2013-05-24 17:54:00,39.9,39.6,29.81,NW,321,6.0,16.0,99,0.00,,,0.66,Wunderground v.1.15,2013-05-24 21:54:00,
2013-05-24 17:55:00,39.8,39.5,29.81,NW,311,7.0,16.0,99,0.00,,,0.66,Wunderground v.1.15,2013-05-24 21:55:00,
2013-05-24 17:56:00,39.9,39.6,29.81,NW,309,4.0,16.0,99,0.00,,,0.66,Wunderground v.1.15,2013-05-24 21:56:00,
2013-05-24 17:57:00,39.9,39.6,29.81,WNW,282,0.0,16.0,99,0.00,,,0.66,Wunderground v.1.15,2013-05-24 21:57:00,
2013-05-24 17:59:00,39.9,39.6,29.81,NW,304,4.0,16.0,99,0.00,,,0.66,Wunderground v.1.15,2013-05-24 21:59:00,
2013-05-24 18:00:00,39.8,39.5,29.81,WSW,246,5.0,9.0,99,0.00,,,0.66,Wunderground v.1.15,2013-05-24 22:00:00,
2013-05-24 18:01:00,39.8,39.5,29.81,WNW,282,2.0,12.0,99,0.00,,,0.66,Wunderground v.1.15,2013-05-24 22:01:00,
2013-05-24 18:02:00,39.8,39.5,29.81,North,355,1.0,12.0,99,0.00,,,0.66,Wunderground v.1.15,2013-05-24 22:02:00,
2013-05-24 18:03:00,39.8,39.5,29.81,North,5,4.0,12.0,99,0.00,,,0.66,Wunderground v.1.15,2013-05-24 22:03:00,
2013-05-24 18:04:00,39.8,39.5,29.81,WSW,242,9.0,12.0,99,0.00,,,0.66,Wunderground v.1.15,2013-05-24 22:04:00,
2013-05-24 18:05:00,39.9,39.6,29.81,NNW,331,8.0,12.0,99,0.00,,,0.66,Wunderground v.1.15,2013-05-24 22:05:00,
2013-05-24 18:06:00,39.8,39.5,29.81,NNE,22,8.0,12.0,99,0.00,,,0.66,Wunderground v.1.15,2013-05-24 22:06:00,
2013-05-24 18:07:00,39.8,39.5,29.81,ESE,115,8.0,12.0,99,0.00,,,0.66,Wunderground v.1.15,2013-05-24 22:07:00,
2013-05-24 18:08:00,39.8,39.5,29.81,NE,36,8.0,13.0,99,0.00,,,0.66,Wunderground v.1.15,2013-05-24 22:08:00,
2013-05-24 18:09:00,39.8,39.5,29.82,West,267,7.0,13.0,99,0.00,,,0.66,Wunderground v.1.15,2013-05-24 22:09:00,
2013-05-24 18:11:00,39.8,39.5,29.81,NW,326,6.0,11.0,99,0.00,,,0.66,Wunderground v.1.15,2013-05-24 22:11:00,
2013-05-24 18:12:00,39.8,39.5,29.82,NW,318,1.0,11.0,99,0.00,,,0.66,Wunderground v.1.15,2013-05-24 22:12:00,
2013-05-24 18:13:00,39.8,39.5,29.81,North,355,9.0,11.0,99,0.00,,,0.66,Wunderground v.1.15,2013-05-24 22:13:00,
2013-05-24 18:14:00,39.8,39.5,29.81,NNW,344,5.0,11.0,99,0.00,,,0.66,Wunderground v.1.15,2013-05-24 22:14:00,
2013-05-24 18:16:00,39.8,39.5,29.82,North,360,1.0,11.0,99,0.00,,,0.66,Wunderground v.1.15,2013-05-24 22:16:00,
2013-05-24 18:17:00,39.7,39.4,29.82,North,350,3.0,11.0,99,0.00,,,0.66,Wunderground v.1.15,2013-05-24 22:17:00,
2013-05-24 18:18:00,39.7,39.4,29.82,NNE,33,7.0,13.0,99,0.00,,,0.66,Wunderground v.1.15,2013-05-24 22:18:00,
2013-05-24 18:19:00,39.8,39.5,29.82,NW,304,4.0,13.0,99,0.00,,,0.66,Wunderground v.1.15,2013-05-24 22:19:00,
2013-05-24 18:21:00,39.8,39.5,29.82,NW,308,0.0,8.0,99,0.00,,,0.66,Wunderground v.1.15,2013-05-24 22:21:00,
2013-05-24 18:23:00,39.8,39.5,29.82,North,360,3.0,12.0,99,0.00,,,0.66,Wunderground v.1.15,2013-05-24 22:23:00,
2013-05-24 18:24:00,39.8,39.5,29.82,NE,43,2.0,12.0,99,0.00,,,0.66,Wunderground v.1.15,2013-05-24 22:24:00,
2013-05-24 18:25:00,39.8,39.5,29.82,NW,309,6.0,12.0,99,0.00,,,0.66,Wunderground v.1.15,2013-05-24 22:25:00,
2013-05-24 18:26:00,39.7,39.4,29.82,NNE,20,8.0,20.0,99,0.00,,,0.66,Wunderground v.1.15,2013-05-24 22:26:00,
2013-05-24 18:28:00,39.7,39.4,29.82,NNW,333,8.0,20.0,99,0.00,,,0.66,Wunderground v.1.15,2013-05-24 22:28:00,
2013-05-24 18:30:00,39.7,39.4,29.82,NE,41,5.0,20.0,99,0.00,,,0.66,Wunderground v.1.15,2013-05-24 22:30:00,
2013-05-24 18:32:00,39.7,39.4,29.82,ENE,57,5.0,11.0,99,0.00,,,0.66,Wunderground v.1.15,2013-05-24 22:32:00,
2013-05-24 18:33:00,39.7,39.4,29.82,North,9,7.0,11.0,99,0.00,,,0.66,Wunderground v.1.15,2013-05-24 22:33:00,
2013-05-24 18:35:00,39.7,39.4,29.81,NNE,28,8.0,11.0,99,0.00,,,0.66,Wunderground v.1.15,2013-05-24 22:35:00,
2013-05-24 18:37:00,39.7,39.4,29.82,North,9,2.0,11.0,99,0.00,,,0.66,Wunderground v.1.15,2013-05-24 22:37:00,
2013-05-24 18:38:00,39.7,39.4,29.82,North,355,8.0,11.0,99,0.00,,,0.67,Wunderground v.1.15,2013-05-24 22:38:00,
2013-05-24 18:40:00,39.7,39.4,29.82,NW,307,6.0,9.0,99,0.00,,,0.67,Wunderground v.1.15,2013-05-24 22:40:00,
2013-05-24 18:42:00,39.7,39.4,29.82,North,9,7.0,10.0,99,0.00,,,0.67,Wunderground v.1.15,2013-05-24 22:42:00,
2013-05-24 18:44:00,39.7,39.4,29.82,NNE,20,14.0,14.0,99,0.00,,,0.67,Wunderground v.1.15,2013-05-24 22:44:00,
2013-05-24 18:45:00,39.7,39.4,29.82,North,5,11.0,14.0,99,0.00,,,0.67,Wunderground v.1.15,2013-05-24 22:45:00,
2013-05-24 18:47:00,39.7,39.4,29.82,WNW,289,6.0,14.0,99,0.00,,,0.67,Wunderground v.1.15,2013-05-24 22:47:00,
2013-05-24 18:49:00,39.7,39.4,29.82,SW,222,4.0,14.0,99,0.00,,,0.67,Wunderground v.1.15,2013-05-24 22:49:00,
2013-05-24 18:50:00,39.7,39.4,29.82,WSW,244,4.0,14.0,99,0.00,,,0.67,Wunderground v.1.15,2013-05-24 22:50:00,
2013-05-24 18:51:00,39.7,39.4,29.83,North,5,6.0,11.0,99,0.00,,,0.67,Wunderground v.1.15,2013-05-24 22:51:00,
2013-05-24 18:53:00,39.7,39.4,29.83,NNE,14,5.0,11.0,99,0.04,,,0.68,Wunderground v.1.15,2013-05-24 22:53:00,
2013-05-24 18:54:00,39.7,39.4,29.83,NE,49,0.0,11.0,99,0.04,,,0.68,Wunderground v.1.15,2013-05-24 22:54:00,
2013-05-24 18:55:00,39.7,39.4,29.83,NNE,27,6.0,11.0,99,0.04,,,0.68,Wunderground v.1.15,2013-05-24 22:55:00,
2013-05-24 18:56:00,39.7,39.4,29.83,North,351,0.0,11.0,99,0.04,,,0.68,Wunderground v.1.15,2013-05-24 22:56:00,
2013-05-24 18:58:00,39.8,39.5,29.83,ENE,58,5.0,11.0,99,0.04,,,0.68,Wunderground v.1.15,2013-05-24 22:58:00,
2013-05-24 18:59:00,39.7,39.4,29.83,NW,311,9.0,11.0,99,0.04,,,0.68,Wunderground v.1.15,2013-05-24 22:59:00,
2013-05-24 19:00:00,39.7,39.4,29.83,WSW,248,4.0,11.0,99,0.04,,,0.68,Wunderground v.1.15,2013-05-24 23:00:00,
2013-05-24 19:01:00,39.7,39.4,29.83,NW,317,5.0,16.0,99,0.04,,,0.68,Wunderground v.1.15,2013-05-24 23:01:00,
2013-05-24 19:02:00,39.7,39.4,29.83,NNW,329,4.0,16.0,99,0.04,,,0.68,Wunderground v.1.15,2013-05-24 23:02:00,
2013-05-24 19:03:00,39.7,39.4,29.83,SSW,196,5.0,16.0,99,0.04,,,0.68,Wunderground v.1.15,2013-05-24 23:03:00,
2013-05-24 19:04:00,39.7,39.4,29.83,WNW,294,5.0,17.0,99,0.04,,,0.68,Wunderground v.1.15,2013-05-24 23:04:00,
2013-05-24 19:05:00,39.7,39.4,29.83,SW,217,6.0,17.0,99,0.04,,,0.68,Wunderground v.1.15,2013-05-24 23:05:00,
2013-05-24 19:06:00,39.7,39.4,29.83,SE,145,4.0,17.0,99,0.04,,,0.69,Wunderground v.1.15,2013-05-24 23:06:00,
2013-05-24 19:07:00,39.7,39.4,29.83,NNW,342,3.0,17.0,99,0.04,,,0.69,Wunderground v.1.15,2013-05-24 23:07:00,
2013-05-24 19:08:00,39.7,39.4,29.83,NNW,337,4.0,17.0,99,0.04,,,0.69,Wunderground v.1.15,2013-05-24 23:08:00,
2013-05-24 19:09:00,39.7,39.4,29.83,North,355,7.0,17.0,99,0.04,,,0.69,Wunderground v.1.15,2013-05-24 23:09:00,
2013-05-24 19:10:00,39.7,39.4,29.83,West,269,2.0,5.0,99,0.04,,,0.69,Wunderground v.1.15,2013-05-24 23:10:00,
2013-05-24 19:11:00,39.7,39.4,29.83,NNE,21,4.0,5.0,99,0.04,,,0.69,Wunderground v.1.15,2013-05-24 23:11:00,
2013-05-24 19:12:00,39.7,39.4,29.83,NW,308,3.0,12.0,99,0.04,,,0.69,Wunderground v.1.15,2013-05-24 23:12:00,
2013-05-24 19:14:00,39.6,39.3,29.83,North,360,10.0,12.0,99,0.04,,,0.69,Wunderground v.1.15,2013-05-24 23:14:00,
2013-05-24 19:15:00,39.6,39.3,29.82,NNW,340,6.0,15.0,99,0.04,,,0.69,Wunderground v.1.15,2013-05-24 23:15:00,
2013-05-24 19:16:00,39.6,39.3,29.82,North,5,5.0,15.0,99,0.04,,,0.69,Wunderground v.1.15,2013-05-24 23:16:00,
2013-05-24 19:17:00,39.6,39.3,29.82,WSW,242,0.0,15.0,99,0.04,,,0.69,Wunderground v.1.15,2013-05-24 23:17:00,
2013-05-24 19:19:00,39.6,39.3,29.82,NW,316,7.0,15.0,99,0.04,,,0.69,Wunderground v.1.15,2013-05-24 23:19:00,
2013-05-24 19:20:00,39.6,39.3,29.82,NNE,26,5.0,15.0,99,0.04,,,0.69,Wunderground v.1.15,2013-05-24 23:20:00,
2013-05-24 19:22:00,39.7,39.4,29.82,NNW,333,5.0,16.0,99,0.04,,,0.70,Wunderground v.1.15,2013-05-24 23:22:00,
2013-05-24 19:24:00,39.6,39.3,29.82,ESE,103,5.0,16.0,99,0.04,,,0.70,Wunderground v.1.15,2013-05-24 23:24:00,
2013-05-24 19:25:00,39.6,39.3,29.82,NNW,331,3.0,16.0,99,0.04,,,0.70,Wunderground v.1.15,2013-05-24 23:25:00,
2013-05-24 19:26:00,39.6,39.3,29.82,NNW,329,2.0,16.0,99,0.04,,,0.70,Wunderground v.1.15,2013-05-24 23:26:00,
2013-05-24 19:27:00,39.6,39.3,29.83,ENE,71,3.0,16.0,99,0.04,,,0.70,Wunderground v.1.15,2013-05-24 23:27:00,
2013-05-24 19:30:00,39.6,39.3,29.83,North,5,0.0,16.0,99,0.04,,,0.70,Wunderground v.1.15,2013-05-24 23:30:00,
2013-05-24 19:31:00,39.6,39.3,29.83,WNW,294,4.0,5.0,99,0.04,,,0.70,Wunderground v.1.15,2013-05-24 23:31:00,
2013-05-24 19:32:00,39.5,39.2,29.83,NNW,334,5.0,11.0,99,0.04,,,0.70,Wunderground v.1.15,2013-05-24 23:32:00,
2013-05-24 19:33:00,39.6,39.3,29.83,NNW,332,5.0,11.0,99,0.04,,,0.70,Wunderground v.1.15,2013-05-24 23:33:00,
2013-05-24 19:35:00,39.5,39.2,29.83,NNW,340,6.0,12.0,99,0.04,,,0.70,Wunderground v.1.15,2013-05-24 23:35:00,
2013-05-24 19:36:00,39.5,39.2,29.83,North,5,10.0,13.0,99,0.04,,,0.70,Wunderground v.1.15,2013-05-24 23:36:00,
2013-05-24 19:38:00,39.5,39.2,29.83,North,350,15.0,16.0,99,0.04,,,0.70,Wunderground v.1.15,2013-05-24 23:38:00,
2013-05-24 19:41:00,39.4,39.1,29.84,NNW,347,3.0,8.0,99,0.00,,,0.70,Wunderground v.1.15,2013-05-24 23:41:00,
2013-05-24 19:43:00,39.4,39.1,29.84,SW,226,7.0,19.0,99,0.00,,,0.70,Wunderground v.1.15,2013-05-24 23:43:00,
2013-05-24 19:44:00,39.4,39.1,29.84,North,5,9.0,19.0,99,0.00,,,0.70,Wunderground v.1.15,2013-05-24 23:44:00,
2013-05-24 19:46:00,39.3,39.0,29.84,NW,321,5.0,19.0,99,0.00,,,0.70,Wunderground v.1.15,2013-05-24 23:46:00,
2013-05-24 19:47:00,39.3,39.0,29.84,NNW,340,3.0,19.0,99,0.00,,,0.70,Wunderground v.1.15,2013-05-24 23:47:00,
2013-05-24 19:48:00,39.3,39.0,29.84,NNE,13,4.0,19.0,99,0.00,,,0.70,Wunderground v.1.15,2013-05-24 23:48:00,
2013-05-24 19:49:00,39.4,39.1,29.84,NE,43,5.0,19.0,99,0.00,,,0.70,Wunderground v.1.15,2013-05-24 23:49:00,
2013-05-24 19:51:00,39.4,39.1,29.84,WNW,296,6.0,8.0,99,0.00,,,0.70,Wunderground v.1.15,2013-05-24 23:51:00,
2013-05-24 19:52:00,39.4,39.1,29.84,NNW,339,3.0,8.0,99,0.00,,,0.70,Wunderground v.1.15,2013-05-24 23:52:00,
2013-05-24 19:54:00,39.4,39.1,29.84,WNW,283,3.0,8.0,99,0.00,,,0.70,Wunderground v.1.15,2013-05-24 23:54:00,
2013-05-24 19:56:00,39.4,39.1,29.84,NNE,32,8.0,11.0,99,0.00,,,0.70,Wunderground v.1.15,2013-05-24 23:56:00,
2013-05-24 19:57:00,39.3,39.0,29.84,NNW,342,5.0,11.0,99,0.00,,,0.70,Wunderground v.1.15,2013-05-24 23:57:00,
2013-05-24 19:59:00,39.3,39.0,29.84,NE,51,3.0,11.0,99,0.00,,,0.70,Wunderground v.1.15,2013-05-24 23:59:00,
2013-05-24 20:02:00,39.4,39.1,29.84,SW,234,2.0,10.0,99,0.00,,,0.70,Wunderground v.1.15,2013-05-25 00:02:00,
2013-05-24 20:03:00,39.3,39.0,29.84,NW,306,1.0,11.0,99,0.00,,,0.71,Wunderground v.1.15,2013-05-25 00:03:00,
2013-05-24 20:04:00,39.3,39.0,29.84,WSW,257,2.0,11.0,99,0.00,,,0.71,Wunderground v.1.15,2013-05-25 00:04:00,
2013-05-24 20:05:00,39.3,39.0,29.84,SW,223,10.0,11.0,99,0.00,,,0.71,Wunderground v.1.15,2013-05-25 00:05:00,
2013-05-24 20:08:00,39.3,39.0,29.84,NW,304,7.0,12.0,99,0.00,,,0.71,Wunderground v.1.15,2013-05-25 00:08:00,
2013-05-24 20:09:00,39.3,39.0,29.84,North,351,1.0,12.0,99,0.00,,,0.71,Wunderground v.1.15,2013-05-25 00:09:00,
2013-05-24 20:10:00,39.3,39.0,29.85,NE,45,1.0,4.0,99,0.00,,,0.71,Wunderground v.1.15,2013-05-25 00:10:00,
2013-05-24 20:13:00,39.3,39.0,29.85,North,9,7.0,14.0,99,0.00,,,0.71,Wunderground v.1.15,2013-05-25 00:13:00,
2013-05-24 20:14:00,39.3,39.0,29.85,NNW,344,5.0,14.0,99,0.00,,,0.71,Wunderground v.1.15,2013-05-25 00:14:00,
2013-05-24 20:15:00,39.3,39.0,29.85,SE,127,5.0,14.0,99,0.00,,,0.71,Wunderground v.1.15,2013-05-25 00:15:00,
2013-05-24 20:18:00,39.3,39.0,29.85,South,187,3.0,14.0,99,0.00,,,0.71,Wunderground v.1.15,2013-05-25 00:18:00,
2013-05-24 20:19:00,39.3,39.0,29.86,NNE,24,6.0,14.0,99,0.00,,,0.71,Wunderground v.1.15,2013-05-25 00:19:00,
2013-05-24 20:20:00,39.3,39.0,29.86,NW,321,3.0,7.0,99,0.00,,,0.71,Wunderground v.1.15,2013-05-25 00:20:00,
2013-05-24 20:21:00,39.3,39.0,29.86,West,278,2.0,7.0,99,0.00,,,0.71,Wunderground v.1.15,2013-05-25 00:21:00,
2013-05-24 20:23:00,39.3,39.0,29.86,North,9,9.0,9.0,99,0.00,,,0.72,Wunderground v.1.15,2013-05-25 00:23:00,
2013-05-24 20:24:00,39.3,39.0,29.86,WNW,294,5.0,9.0,99,0.00,,,0.72,Wunderground v.1.15,2013-05-25 00:24:00,
2013-05-24 20:25:00,39.3,39.0,29.86,NNW,342,4.0,9.0,99,0.00,,,0.72,Wunderground v.1.15,2013-05-25 00:25:00,
2013-05-24 20:26:00,39.2,38.9,29.86,North,355,3.0,9.0,99,0.00,,,0.72,Wunderground v.1.15,2013-05-25 00:26:00,
2013-05-24 20:29:00,39.3,39.0,29.85,NNW,341,8.0,10.0,99,0.00,,,0.72,Wunderground v.1.15,2013-05-25 00:29:00,
2013-05-24 20:31:00,39.3,39.0,29.85,NNE,13,3.0,6.0,99,0.00,,,0.72,Wunderground v.1.15,2013-05-25 00:31:00,
2013-05-24 20:34:00,39.2,38.9,29.85,NNW,340,4.0,16.0,99,0.05,,,0.73,Wunderground v.1.15,2013-05-25 00:34:00,
2013-05-24 20:36:00,39.2,38.9,29.86,North,360,10.0,16.0,99,0.05,,,0.73,Wunderground v.1.15,2013-05-25 00:36:00,
2013-05-24 20:37:00,39.2,38.9,29.86,NW,319,4.0,16.0,99,0.05,,,0.73,Wunderground v.1.15,2013-05-25 00:37:00,
2013-05-24 20:39:00,39.2,38.9,29.86,NNW,332,9.0,16.0,99,0.05,,,0.73,Wunderground v.1.15,2013-05-25 00:39:00,
2013-05-24 20:41:00,39.2,38.9,29.86,East,86,3.0,10.0,99,0.05,,,0.73,Wunderground v.1.15,2013-05-25 00:41:00,
2013-05-24 20:42:00,39.1,38.8,29.86,NNE,15,7.0,10.0,99,0.05,,,0.73,Wunderground v.1.15,2013-05-25 00:42:00,
2013-05-24 20:44:00,39.2,38.9,29.86,ENE,58,4.0,17.0,99,0.05,,,0.73,Wunderground v.1.15,2013-05-25 00:44:00,
2013-05-24 20:45:00,39.2,38.9,29.86,North,360,4.0,17.0,99,0.05,,,0.73,Wunderground v.1.15,2013-05-25 00:45:00,
2013-05-24 20:46:00,39.2,38.9,29.86,West,271,4.0,17.0,99,0.05,,,0.74,Wunderground v.1.15,2013-05-25 00:46:00,
2013-05-24 20:47:00,39.2,38.9,29.86,NNE,24,4.0,17.0,99,0.05,,,0.74,Wunderground v.1.15,2013-05-25 00:47:00,
2013-05-24 20:49:00,39.1,38.8,29.85,ESE,123,4.0,17.0,99,0.05,,,0.74,Wunderground v.1.15,2013-05-25 00:49:00,
2013-05-24 20:50:00,39.1,38.8,29.85,ENE,67,1.0,17.0,99,0.05,,,0.74,Wunderground v.1.15,2013-05-25 00:50:00,
2013-05-24 20:51:00,39.1,38.8,29.85,East,95,5.0,13.0,99,0.05,,,0.74,Wunderground v.1.15,2013-05-25 00:51:00,
2013-05-24 20:52:00,39.1,38.8,29.86,NNE,13,13.0,14.0,99,0.05,,,0.74,Wunderground v.1.15,2013-05-25 00:52:00,
2013-05-24 20:55:00,39.1,38.8,29.85,NW,309,1.0,16.0,99,0.06,,,0.75,Wunderground v.1.15,2013-05-25 00:55:00,
2013-05-24 20:56:00,39.1,38.8,29.85,North,355,3.0,16.0,99,0.06,,,0.75,Wunderground v.1.15,2013-05-25 00:56:00,
2013-05-24 20:57:00,39.1,38.8,29.85,NW,313,2.0,16.0,99,0.06,,,0.75,Wunderground v.1.15,2013-05-25 00:57:00,
2013-05-24 20:58:00,39.1,38.8,29.85,NNW,340,8.0,16.0,99,0.06,,,0.75,Wunderground v.1.15,2013-05-25 00:58:00,
2013-05-24 21:00:00,39.1,38.8,29.85,WNW,296,4.0,5.0,99,0.06,,,0.75,Wunderground v.1.15,2013-05-25 01:00:00,
2013-05-24 21:01:00,39.1,38.8,29.85,South,173,2.0,13.0,99,0.06,,,0.75,Wunderground v.1.15,2013-05-25 01:01:00,
2013-05-24 21:02:00,39.1,38.8,29.86,NW,311,9.0,13.0,99,0.06,,,0.75,Wunderground v.1.15,2013-05-25 01:02:00,
2013-05-24 21:03:00,39.0,38.7,29.85,NW,305,0.0,13.0,99,0.06,,,0.75,Wunderground v.1.15,2013-05-25 01:03:00,
2013-05-24 21:05:00,39.0,38.7,29.85,North,350,1.0,13.0,99,0.06,,,0.76,Wunderground v.1.15,2013-05-25 01:05:00,
2013-05-24 21:07:00,39.1,38.8,29.86,WSW,238,9.0,13.0,99,0.06,,,0.76,Wunderground v.1.15,2013-05-25 01:07:00,
2013-05-24 21:08:00,39.1,38.8,29.86,South,184,2.0,13.0,99,0.06,,,0.76,Wunderground v.1.15,2013-05-25 01:08:00,
2013-05-24 21:10:00,39.1,38.8,29.86,NNE,15,7.0,9.0,99,0.06,,,0.76,Wunderground v.1.15,2013-05-25 01:10:00,
2013-05-24 21:12:00,39.1,38.8,29.86,NNW,330,9.0,10.0,99,0.06,,,0.76,Wunderground v.1.15,2013-05-25 01:12:00,
2013-05-24 21:13:00,39.0,38.7,29.86,NNW,341,4.0,10.0,99,0.07,,,0.77,Wunderground v.1.15,2013-05-25 01:13:00,
2013-05-24 21:14:00,39.1,38.8,29.86,NW,305,3.0,10.0,99,0.07,,,0.77,Wunderground v.1.15,2013-05-25 01:14:00,
2013-05-24 21:15:00,39.0,38.7,29.86,NNW,348,3.0,10.0,99,0.07,,,0.77,Wunderground v.1.15,2013-05-25 01:15:00,
2013-05-24 21:16:00,39.1,38.8,29.86,NNW,331,3.0,10.0,99,0.07,,,0.77,Wunderground v.1.15,2013-05-25 01:16:00,
2013-05-24 21:18:00,39.0,38.7,29.85,NW,309,5.0,11.0,99,0.07,,,0.77,Wunderground v.1.15,2013-05-25 01:18:00,
2013-05-24 21:19:00,39.1,38.8,29.85,NW,325,4.0,11.0,99,0.07,,,0.77,Wunderground v.1.15,2013-05-25 01:19:00,
2013-05-24 21:20:00,39.1,38.8,29.85,NW,315,7.0,9.0,99,0.07,,,0.77,Wunderground v.1.15,2013-05-25 01:20:00,
2013-05-24 21:21:00,39.0,38.7,29.86,WNW,299,5.0,9.0,99,0.07,,,0.77,Wunderground v.1.15,2013-05-25 01:21:00,
2013-05-24 21:23:00,39.0,38.7,29.86,WNW,294,4.0,9.0,99,0.06,,,0.77,Wunderground v.1.15,2013-05-25 01:23:00,
2013-05-24 21:24:00,39.0,38.7,29.85,West,267,4.0,13.0,99,0.06,,,0.78,Wunderground v.1.15,2013-05-25 01:24:00,
2013-05-24 21:25:00,39.0,38.7,29.86,West,265,6.0,14.0,99,0.06,,,0.78,Wunderground v.1.15,2013-05-25 01:25:00,
2013-05-24 21:27:00,39.1,38.8,29.85,NW,317,12.0,14.0,99,0.06,,,0.78,Wunderground v.1.15,2013-05-25 01:27:00,
2013-05-24 21:28:00,39.0,38.7,29.85,NNW,344,16.0,16.0,99,0.06,,,0.78,Wunderground v.1.15,2013-05-25 01:28:00,
2013-05-24 21:29:00,39.0,38.7,29.85,North,350,9.0,16.0,99,0.06,,,0.78,Wunderground v.1.15,2013-05-25 01:29:00,
2013-05-24 21:31:00,39.0,38.7,29.85,NNW,333,4.0,11.0,99,0.06,,,0.78,Wunderground v.1.15,2013-05-25 01:31:00,
2013-05-24 21:32:00,39.0,38.7,29.85,East,97,4.0,11.0,99,0.06,,,0.78,Wunderground v.1.15,2013-05-25 01:32:00,
2013-05-24 21:34:00,39.0,38.7,29.85,North,351,3.0,11.0,99,0.06,,,0.79,Wunderground v.1.15,2013-05-25 01:34:00,
2013-05-24 21:35:00,39.0,38.7,29.87,NE,39,5.0,11.0,99,0.06,,,0.79,Wunderground v.1.15,2013-05-25 01:35:00,
2013-05-24 21:36:00,39.0,38.7,29.86,NE,49,14.0,15.0,99,0.06,,,0.79,Wunderground v.1.15,2013-05-25 01:36:00,
2013-05-24 21:37:00,39.0,38.7,29.86,SSW,208,7.0,15.0,99,0.06,,,0.79,Wunderground v.1.15,2013-05-25 01:37:00,
2013-05-24 21:39:00,39.0,38.7,29.87,NNW,334,0.0,15.0,99,0.06,,,0.79,Wunderground v.1.15,2013-05-25 01:39:00,
2013-05-24 21:41:00,39.1,38.8,29.86,North,360,10.0,13.0,99,0.06,,,0.79,Wunderground v.1.15,2013-05-25 01:41:00,
2013-05-24 21:42:00,39.1,38.8,29.87,NNE,28,7.0,13.0,99,0.06,,,0.79,Wunderground v.1.15,2013-05-25 01:42:00,
2013-05-24 21:44:00,39.1,38.8,29.87,NE,46,2.0,13.0,99,0.06,,,0.80,Wunderground v.1.15,2013-05-25 01:44:00,
2013-05-24 21:45:00,39.1,38.8,29.86,WNW,291,4.0,13.0,99,0.06,,,0.80,Wunderground v.1.15,2013-05-25 01:45:00,
2013-05-24 21:46:00,39.1,38.8,29.87,North,355,2.0,13.0,99,0.06,,,0.80,Wunderground v.1.15,2013-05-25 01:46:00,
2013-05-24 21:48:00,39.1,38.8,29.87,ENE,58,2.0,13.0,99,0.06,,,0.80,Wunderground v.1.15,2013-05-25 01:48:00,
2013-05-24 21:49:00,39.1,38.8,29.87,WNW,299,1.0,13.0,99,0.06,,,0.80,Wunderground v.1.15,2013-05-25 01:49:00,
2013-05-24 21:50:00,39.1,38.8,29.86,NW,318,1.0,13.0,99,0.06,,,0.80,Wunderground v.1.15,2013-05-25 01:50:00,
2013-05-24 21:51:00,39.1,38.8,29.87,NW,310,8.0,13.0,99,0.06,,,0.80,Wunderground v.1.15,2013-05-25 01:51:00,
2013-05-24 21:53:00,39.1,38.8,29.87,NNE,13,7.0,13.0,99,0.06,,,0.80,Wunderground v.1.15,2013-05-25 01:53:00,
2013-05-24 21:54:00,39.1,38.8,29.87,NNW,344,6.0,13.0,99,0.06,,,0.81,Wunderground v.1.15,2013-05-25 01:54:00,
2013-05-24 21:55:00,39.1,38.8,29.87,NNE,20,6.0,13.0,99,0.06,,,0.81,Wunderground v.1.15,2013-05-25 01:55:00,
2013-05-24 21:57:00,39.1,38.8,29.87,NNW,344,4.0,13.0,99,0.06,,,0.81,Wunderground v.1.15,2013-05-25 01:57:00,
2013-05-24 21:58:00,39.1,38.8,29.87,East,90,8.0,13.0,99,0.06,,,0.81,Wunderground v.1.15,2013-05-25 01:58:00,
2013-05-24 21:59:00,39.1,38.8,29.87,NE,39,9.0,13.0,99,0.06,,,0.81,Wunderground v.1.15,2013-05-25 01:59:00,
2013-05-24 22:00:00,39.1,38.8,29.87,NNW,339,10.0,13.0,99,0.06,,,0.81,Wunderground v.1.15,2013-05-25 02:00:00,
2013-05-24 22:02:00,39.1,38.8,29.87,NNW,347,3.0,6.0,99,0.06,,,0.81,Wunderground v.1.15,2013-05-25 02:02:00,
2013-05-24 22:04:00,39.1,38.8,29.87,West,259,2.0,11.0,99,0.06,,,0.81,Wunderground v.1.15,2013-05-25 02:04:00,
2013-05-24 22:05:00,39.1,38.8,29.87,NW,326,5.0,11.0,99,0.05,,,0.81,Wunderground v.1.15,2013-05-25 02:05:00,
2013-05-24 22:06:00,39.1,38.8,29.87,North,355,9.0,11.0,99,0.05,,,0.81,Wunderground v.1.15,2013-05-25 02:06:00,
2013-05-24 22:07:00,39.1,38.8,29.87,NE,53,3.0,14.0,99,0.05,,,0.82,Wunderground v.1.15,2013-05-25 02:07:00,
2013-05-24 22:09:00,39.1,38.8,29.87,NNW,343,4.0,14.0,99,0.05,,,0.82,Wunderground v.1.15,2013-05-25 02:09:00,
2013-05-24 22:10:00,39.1,38.8,29.87,NW,325,4.0,5.0,99,0.05,,,0.82,Wunderground v.1.15,2013-05-25 02:10:00,
2013-05-24 22:11:00,39.1,38.8,29.87,NNW,346,0.0,7.0,99,0.05,,,0.82,Wunderground v.1.15,2013-05-25 02:11:00,
2013-05-24 22:13:00,39.1,38.8,29.87,NNE,30,4.0,7.0,99,0.05,,,0.82,Wunderground v.1.15,2013-05-25 02:13:00,
2013-05-24 22:14:00,39.1,38.8,29.88,NNW,331,6.0,7.0,99,0.05,,,0.82,Wunderground v.1.15,2013-05-25 02:14:00,
2013-05-24 22:15:00,39.1,38.8,29.88,West,272,9.0,19.0,99,0.05,,,0.82,Wunderground v.1.15,2013-05-25 02:15:00,
2013-05-24 22:16:00,39.1,38.8,29.88,WSW,252,3.0,19.0,99,0.05,,,0.82,Wunderground v.1.15,2013-05-25 02:16:00,
2013-05-24 22:18:00,39.1,38.8,29.88,NNE,27,0.0,19.0,99,0.05,,,0.82,Wunderground v.1.15,2013-05-25 02:18:00,
2013-05-24 22:19:00,39.1,38.8,29.88,NNW,333,4.0,19.0,99,0.05,,,0.83,Wunderground v.1.15,2013-05-25 02:19:00,
2013-05-24 22:20:00,39.1,38.8,29.88,West,273,3.0,3.0,99,0.05,,,0.83,Wunderground v.1.15,2013-05-25 02:20:00,
2013-05-24 22:22:00,39.1,38.8,29.88,WNW,300,3.0,12.0,99,0.05,,,0.83,Wunderground v.1.15,2013-05-25 02:22:00,
2013-05-24 22:23:00,39.1,38.8,29.89,NNE,22,5.0,12.0,99,0.05,,,0.83,Wunderground v.1.15,2013-05-25 02:23:00,
2013-05-24 22:24:00,39.1,38.8,29.89,NNW,346,2.0,12.0,99,0.05,,,0.83,Wunderground v.1.15,2013-05-25 02:24:00,
2013-05-24 22:25:00,39.1,38.8,29.88,NNE,26,17.0,17.0,99,0.05,,,0.83,Wunderground v.1.15,2013-05-25 02:25:00,
2013-05-24 22:26:00,39.1,38.8,29.89,West,265,4.0,18.0,99,0.05,,,0.83,Wunderground v.1.15,2013-05-25 02:26:00,
2013-05-24 22:27:00,39.1,38.8,29.88,NW,321,3.0,18.0,99,0.05,,,0.83,Wunderground v.1.15,2013-05-25 02:27:00,
2013-05-24 22:28:00,39.1,38.8,29.88,NNE,14,3.0,18.0,99,0.05,,,0.83,Wunderground v.1.15,2013-05-25 02:28:00,
2013-05-24 22:29:00,39.1,38.8,29.88,WNW,298,4.0,18.0,99,0.05,,,0.83,Wunderground v.1.15,2013-05-25 02:29:00,
2013-05-24 22:31:00,39.1,38.8,29.89,NNE,28,3.0,10.0,99,0.05,,,0.83,Wunderground v.1.15,2013-05-25 02:31:00,
2013-05-24 22:32:00,39.1,38.8,29.88,NNE,13,1.0,10.0,99,0.05,,,0.84,Wunderground v.1.15,2013-05-25 02:32:00,
2013-05-24 22:33:00,39.1,38.8,29.88,NW,321,7.0,12.0,99,0.05,,,0.84,Wunderground v.1.15,2013-05-25 02:33:00,
2013-05-24 22:34:00,39.1,38.8,29.88,NE,45,5.0,12.0,99,0.05,,,0.84,Wunderground v.1.15,2013-05-25 02:34:00,
2013-05-24 22:36:00,39.1,38.8,29.88,North,5,9.0,12.0,99,0.05,,,0.84,Wunderground v.1.15,2013-05-25 02:36:00,
2013-05-24 22:37:00,39.1,38.8,29.88,WNW,298,5.0,12.0,99,0.05,,,0.84,Wunderground v.1.15,2013-05-25 02:37:00,
2013-05-24 22:38:00,39.1,38.8,29.87,North,9,0.0,12.0,99,0.05,,,0.84,Wunderground v.1.15,2013-05-25 02:38:00,
2013-05-24 22:39:00,39.1,38.8,29.87,NNW,340,1.0,12.0,99,0.05,,,0.84,Wunderground v.1.15,2013-05-25 02:39:00,
2013-05-24 22:41:00,39.1,38.8,29.87,WNW,302,11.0,11.0,99,0.05,,,0.84,Wunderground v.1.15,2013-05-25 02:41:00,
2013-05-24 22:42:00,39.1,38.8,29.87,North,355,8.0,11.0,99,0.05,,,0.84,Wunderground v.1.15,2013-05-25 02:42:00,
2013-05-24 22:43:00,39.1,38.8,29.87,NE,34,6.0,12.0,99,0.05,,,0.84,Wunderground v.1.15,2013-05-25 02:43:00,
2013-05-24 22:45:00,39.1,38.8,29.86,North,355,12.0,16.0,99,0.05,,,0.85,Wunderground v.1.15,2013-05-25 02:45:00,
2013-05-24 22:47:00,39.1,38.8,29.86,North,5,6.0,16.0,99,0.05,,,0.85,Wunderground v.1.15,2013-05-25 02:47:00,
2013-05-24 22:48:00,39.1,38.8,29.86,North,5,10.0,16.0,99,0.05,,,0.85,Wunderground v.1.15,2013-05-25 02:48:00,
2013-05-24 22:50:00,39.1,38.8,29.86,NE,36,5.0,11.0,99,0.05,,,0.85,Wunderground v.1.15,2013-05-25 02:50:00,
2013-05-24 22:52:00,39.1,38.8,29.86,NNW,329,3.0,11.0,99,0.05,,,0.85,Wunderground v.1.15,2013-05-25 02:52:00,
2013-05-24 22:54:00,39.1,38.8,29.86,NNE,15,1.0,11.0,99,0.05,,,0.85,Wunderground v.1.15,2013-05-25 02:54:00,
2013-05-24 22:55:00,39.1,38.8,29.86,NNW,342,12.0,12.0,99,0.05,,,0.85,Wunderground v.1.15,2013-05-25 02:55:00,
2013-05-24 22:57:00,39.1,38.8,29.86,NW,315,2.0,12.0,99,0.05,,,0.85,Wunderground v.1.15,2013-05-25 02:57:00,
2013-05-24 22:59:00,39.1,38.8,29.86,NW,319,1.0,12.0,99,0.04,,,0.85,Wunderground v.1.15,2013-05-25 02:59:00,
2013-05-24 23:00:00,39.1,38.8,29.86,West,281,3.0,5.0,99,0.04,,,0.86,Wunderground v.1.15,2013-05-25 03:00:00,
2013-05-24 23:02:00,39.1,38.8,29.87,WSW,252,1.0,9.0,99,0.04,,,0.86,Wunderground v.1.15,2013-05-25 03:02:00,
2013-05-24 23:03:00,39.1,38.8,29.87,North,9,4.0,9.0,99,0.04,,,0.86,Wunderground v.1.15,2013-05-25 03:03:00,
2013-05-24 23:04:00,39.1,38.8,29.87,NW,325,6.0,9.0,99,0.04,,,0.86,Wunderground v.1.15,2013-05-25 03:04:00,
2013-05-24 23:06:00,39.2,38.9,29.87,East,95,0.0,12.0,99,0.04,,,0.86,Wunderground v.1.15,2013-05-25 03:06:00,
2013-05-24 23:07:00,39.1,38.8,29.87,WNW,301,3.0,12.0,99,0.04,,,0.86,Wunderground v.1.15,2013-05-25 03:07:00,
2013-05-24 23:09:00,39.2,38.9,29.87,NNW,345,7.0,12.0,99,0.04,,,0.86,Wunderground v.1.15,2013-05-25 03:09:00,
2013-05-24 23:11:00,39.2,38.9,29.87,NNW,341,4.0,8.0,99,0.04,,,0.86,Wunderground v.1.15,2013-05-25 03:11:00,
2013-05-24 23:13:00,39.2,38.9,29.87,NNE,30,11.0,12.0,99,0.04,,,0.86,Wunderground v.1.15,2013-05-25 03:13:00,
2013-05-24 23:14:00,39.2,38.9,29.87,NNE,32,4.0,12.0,99,0.04,,,0.86,Wunderground v.1.15,2013-05-25 03:14:00,
2013-05-24 23:15:00,39.2,38.9,29.87,NNW,334,6.0,12.0,99,0.04,,,0.86,Wunderground v.1.15,2013-05-25 03:15:00,
2013-05-24 23:16:00,39.2,38.9,29.87,North,360,6.0,15.0,99,0.04,,,0.87,Wunderground v.1.15,2013-05-25 03:16:00,
2013-05-24 23:18:00,39.2,38.9,29.87,NW,309,1.0,15.0,99,0.04,,,0.87,Wunderground v.1.15,2013-05-25 03:18:00,
2013-05-24 23:19:00,39.2,38.9,29.87,NNW,327,0.0,15.0,99,0.04,,,0.87,Wunderground v.1.15,2013-05-25 03:19:00,
2013-05-24 23:20:00,39.2,38.9,29.87,North,355,1.0,5.0,99,0.04,,,0.87,Wunderground v.1.15,2013-05-25 03:20:00,
2013-05-24 23:21:00,39.3,39.0,29.87,NNE,12,3.0,10.0,99,0.04,,,0.87,Wunderground v.1.15,2013-05-25 03:21:00,
2013-05-24 23:23:00,39.2,38.9,29.87,NNW,341,7.0,12.0,99,0.04,,,0.87,Wunderground v.1.15,2013-05-25 03:23:00,
2013-05-24 23:24:00,39.2,38.9,29.87,West,265,2.0,12.0,99,0.04,,,0.87,Wunderground v.1.15,2013-05-25 03:24:00,
2013-05-24 23:25:00,39.2,38.9,29.87,NE,40,2.0,12.0,99,0.04,,,0.87,Wunderground v.1.15,2013-05-25 03:25:00,
2013-05-24 23:26:00,39.3,39.0,29.87,NNW,338,6.0,12.0,99,0.04,,,0.87,Wunderground v.1.15,2013-05-25 03:26:00,
2013-05-24 23:28:00,39.2,38.9,29.87,NNW,338,9.0,16.0,99,0.04,,,0.87,Wunderground v.1.15,2013-05-25 03:28:00,
2013-05-24 23:29:00,39.2,38.9,29.87,NNE,12,4.0,16.0,99,0.04,,,0.87,Wunderground v.1.15,2013-05-25 03:29:00,
2013-05-24 23:30:00,39.2,38.9,29.87,NW,326,5.0,5.0,99,0.04,,,0.87,Wunderground v.1.15,2013-05-25 03:30:00,
2013-05-24 23:31:00,39.2,38.9,29.87,West,279,4.0,6.0,99,0.04,,,0.87,Wunderground v.1.15,2013-05-25 03:31:00,
2013-05-24 23:34:00,39.3,39.0,29.87,NNW,336,5.0,12.0,99,0.00,,,0.88,Wunderground v.1.15,2013-05-25 03:34:00,
2013-05-24 23:35:00,39.2,38.9,29.87,NE,37,8.0,13.0,99,0.00,,,0.88,Wunderground v.1.15,2013-05-25 03:35:00,
2013-05-24 23:36:00,39.2,38.9,29.87,North,5,5.0,13.0,99,0.00,,,0.88,Wunderground v.1.15,2013-05-25 03:36:00,
2013-05-24 23:39:00,39.2,38.9,29.87,NNW,348,8.0,14.0,99,0.00,,,0.88,Wunderground v.1.15,2013-05-25 03:39:00,
2013-05-24 23:40:00,39.3,39.0,29.87,North,9,5.0,14.0,99,0.00,,,0.88,Wunderground v.1.15,2013-05-25 03:40:00,
2013-05-24 23:41:00,39.2,38.9,29.88,NNW,342,6.0,7.0,99,0.00,,,0.88,Wunderground v.1.15,2013-05-25 03:41:00,
2013-05-24 23:42:00,39.2,38.9,29.88,NNE,31,7.0,9.0,99,0.00,,,0.88,Wunderground v.1.15,2013-05-25 03:42:00,
2013-05-24 23:44:00,39.3,39.0,29.88,WNW,296,0.0,9.0,99,0.00,,,0.88,Wunderground v.1.15,2013-05-25 03:44:00,
2013-05-24 23:45:00,39.3,39.0,29.88,NE,38,8.0,9.0,99,0.00,,,0.88,Wunderground v.1.15,2013-05-25 03:45:00,
2013-05-24 23:46:00,39.3,39.0,29.87,NNW,333,7.0,9.0,99,0.00,,,0.88,Wunderground v.1.15,2013-05-25 03:46:00,
2013-05-24 23:47:00,39.3,39.0,29.88,North,350,1.0,9.0,99,0.00,,,0.88,Wunderground v.1.15,2013-05-25 03:47:00,
2013-05-24 23:49:00,39.3,39.0,29.87,NE,44,2.0,10.0,99,0.00,,,0.88,Wunderground v.1.15,2013-05-25 03:49:00,
2013-05-24 23:50:00,39.3,39.0,29.87,NW,316,6.0,6.0,99,0.00,,,0.88,Wunderground v.1.15,2013-05-25 03:50:00,
2013-05-24 23:51:00,39.3,39.0,29.87,NNW,336,7.0,10.0,99,0.00,,,0.88,Wunderground v.1.15,2013-05-25 03:51:00,
2013-05-24 23:52:00,39.3,39.0,29.87,NNE,30,5.0,10.0,99,0.00,,,0.88,Wunderground v.1.15,2013-05-25 03:52:00,
2013-05-24 23:53:00,39.3,39.0,29.87,NW,320,3.0,10.0,99,0.00,,,0.88,Wunderground v.1.15,2013-05-25 03:53:00,
2013-05-24 23:55:00,39.3,39.0,29.87,North,355,2.0,10.0,99,0.00,,,0.89,Wunderground v.1.15,2013-05-25 03:55:00,
2013-05-24 23:56:00,39.3,39.0,29.87,North,350,11.0,14.0,99,0.00,,,0.89,Wunderground v.1.15,2013-05-25 03:56:00,
2013-05-24 23:57:00,39.3,39.0,29.87,North,360,4.0,14.0,99,0.00,,,0.89,Wunderground v.1.15,2013-05-25 03:57:00,
2013-05-24 23:58:00,39.3,39.0,29.87,North,5,0.0,14.0,99,0.00,,,0.89,Wunderground v.1.15,2013-05-25 03:58:00,